| time (UTC) | temp F | wind direction | speed MPH | gust MPH | rain 1hr in | rain 24hr in | rain mn in | humidity % | barometer mb |
| 20260507071741 | 58 | 329 | 7.0 | 14.0 | 0.00 | 0.14 | 0.01 | 88 | 1010.8 |
| 20260507071645 | 58 | 16 | 7.0 | 14.0 | 0.00 | 0.14 | 0.01 | 88 | 1010.9 |
| 20260507071631 | 58 | 323 | 6.0 | 14.0 | 0.00 | 0.14 | 0.01 | 88 | 1010.7 |
| 20260507071420 | 58 | 332 | 6.0 | 14.0 | 0.00 | 0.14 | 0.01 | 88 | 1010.7 |
| 20260507071344 | 58 | 315 | 7.0 | 14.0 | 0.00 | 0.14 | 0.01 | 88 | 1010.6 |
| 20260507071242 | 58 | 323 | 6.0 | 12.0 | 0.00 | 0.14 | 0.01 | 88 | 1010.6 |
| 20260507071127 | 58 | 348 | 6.0 | 12.0 | 0.00 | 0.14 | 0.01 | 88 | 1010.5 |
| 20260507071025 | 58 | 342 | 6.0 | 12.0 | 0.00 | 0.14 | 0.01 | 88 | 1010.4 |
| 20260507070934 | 58 | 360 | 4.0 | 9.0 | 0.00 | 0.14 | 0.01 | 88 | 1010.4 |
| 20260507070842 | 58 | 335 | 4.0 | 9.0 | 0.00 | 0.14 | 0.01 | 89 | 1010.5 |
| 20260507070744 | 58 | 306 | 6.0 | 9.0 | 0.00 | 0.14 | 0.01 | 89 | 1010.4 |
| 20260507070635 | 58 | 315 | 6.0 | 9.0 | 0.00 | 0.14 | 0.01 | 89 | 1010.4 |
| 20260507070519 | 58 | 319 | 5.0 | 8.0 | 0.00 | 0.14 | 0.01 | 89 | 1010.3 |
| 20260507070419 | 58 | 315 | 5.0 | 8.0 | 0.00 | 0.14 | 0.01 | 89 | 1010.3 |
| 20260507070327 | 58 | 339 | 3.0 | 8.0 | 0.00 | 0.14 | 0.01 | 89 | 1010.3 |
| 20260507070225 | 58 | 320 | 2.0 | 8.0 | 0.00 | 0.14 | 0.01 | 89 | 1010.4 |
| 20260507070155 | 58 | 286 | 3.0 | 8.0 | 0.00 | 0.14 | 0.01 | 89 | 1010.4 |
| 20260507070049 | 58 | 236 | 4.0 | 8.0 | 0.00 | 0.14 | 0.01 | 89 | 1010.2 |
| 20260507065924 | 58 | 281 | 4.0 | 8.0 | 0.00 | 0.14 | 0.01 | 89 | 1010.2 |
| 20260507065846 | 58 | 298 | 3.0 | 8.0 | 0.00 | 0.14 | 0.01 | 89 | 1010.0 |
| 20260507065735 | 58 | 321 | 3.0 | 8.0 | 0.00 | 0.14 | 0.01 | 89 | 1009.9 |
| 20260507065635 | 58 | 348 | 3.0 | 9.0 | 0.00 | 0.14 | 0.01 | 89 | 1009.9 |
| 20260507065533 | 58 | 9 | 3.0 | 9.0 | 0.00 | 0.14 | 0.01 | 89 | 1009.8 |
| 20260507065423 | 58 | 360 | 3.0 | 9.0 | 0.00 | 0.14 | 0.01 | 89 | 1009.8 |
| 20260507065322 | 58 | 352 | 3.0 | 9.0 | 0.00 | 0.14 | 0.01 | 89 | 1009.8 |
| 20260507065232 | 58 | 352 | 4.0 | 9.0 | 0.00 | 0.14 | 0.01 | 88 | 1009.9 |
| 20260507065150 | 58 | 341 | 3.0 | 9.0 | 0.00 | 0.14 | 0.01 | 88 | 1010.0 |
| 20260507065032 | 58 | 312 | 3.0 | 9.0 | 0.00 | 0.14 | 0.01 | 88 | 1009.9 |
| 20260507064940 | 59 | 324 | 4.0 | 9.0 | 0.00 | 0.14 | 0.01 | 88 | 1009.8 |
| 20260507064845 | 59 | 352 | 3.0 | 9.0 | 0.00 | 0.14 | 0.01 | 88 | 1009.8 |
| 20260507064729 | 59 | 352 | 4.0 | 8.0 | 0.00 | 0.14 | 0.01 | 88 | 1009.7 |
| 20260507064639 | 59 | 352 | 4.0 | 8.0 | 0.00 | 0.14 | 0.01 | 88 | 1009.5 |
| 20260507064559 | 59 | 352 | 4.0 | 8.0 | 0.00 | 0.14 | 0.01 | 88 | 1009.7 |
| 20260507064423 | 59 | 352 | 4.0 | 8.0 | 0.00 | 0.14 | 0.01 | 88 | 1009.6 |
| 20260507064328 | 59 | 328 | 4.0 | 8.0 | 0.00 | 0.14 | 0.01 | 88 | 1009.6 |
| 20260507064231 | 59 | 352 | 3.0 | 8.0 | 0.00 | 0.14 | 0.01 | 88 | 1009.7 |
| 20260507064127 | 59 | 342 | 4.0 | 10.0 | 0.00 | 0.14 | 0.01 | 88 | 1009.6 |
| 20260507064040 | 59 | 323 | 4.0 | 10.0 | 0.00 | 0.14 | 0.01 | 88 | 1009.6 |
| 20260507063924 | 59 | 5 | 3.0 | 10.0 | 0.00 | 0.14 | 0.01 | 88 | 1009.5 |
| 20260507063839 | 59 | 21 | 3.0 | 10.0 | 0.00 | 0.14 | 0.01 | 88 | 1009.4 |
| 20260507063744 | 59 | 19 | 4.0 | 10.0 | 0.00 | 0.14 | 0.01 | 88 | 1009.4 |
| 20260507063645 | 59 | 21 | 3.0 | 10.0 | 0.00 | 0.14 | 0.01 | 88 | 1009.4 |
| 20260507063520 | 59 | 44 | 2.0 | 10.0 | 0.00 | 0.14 | 0.01 | 88 | 1009.5 |
| 20260507063445 | 59 | 329 | 4.0 | 10.0 | 0.00 | 0.14 | 0.01 | 88 | 1009.4 |
| 20260507063319 | 59 | 13 | 5.0 | 10.0 | 0.00 | 0.14 | 0.01 | 88 | 1009.4 |
| 20260507063238 | 59 | 332 | 5.0 | 10.0 | 0.00 | 0.14 | 0.01 | 88 | 1009.5 |
| 20260507063128 | 59 | 9 | 6.0 | 10.0 | 0.00 | 0.14 | 0.01 | 88 | 1009.5 |
| 20260507063055 | 59 | 344 | 5.0 | 11.0 | 0.00 | 0.14 | 0.01 | 88 | 1009.5 |
| 20260507062930 | 59 | 336 | 4.0 | 11.0 | 0.00 | 0.14 | 0.01 | 88 | 1009.4 |
| 20260507062847 | 59 | 333 | 3.0 | 11.0 | 0.00 | 0.14 | 0.01 | 88 | 1009.3 |
| 20260507062747 | 60 | 22 | 3.0 | 11.0 | 0.00 | 0.14 | 0.01 | 88 | 1009.4 |
| 20260507062619 | 60 | 40 | 4.0 | 11.0 | 0.00 | 0.14 | 0.01 | 88 | 1009.3 |
| 20260507062547 | 60 | 360 | 4.0 | 11.0 | 0.00 | 0.14 | 0.01 | 89 | 1009.2 |
| 20260507062441 | 60 | 26 | 4.0 | 11.0 | 0.00 | 0.14 | 0.01 | 89 | 1009.2 |
| 20260507062341 | 60 | 46 | 6.0 | 11.0 | 0.00 | 0.14 | 0.01 | 89 | 1009.3 |
| 20260507062228 | 60 | 333 | 6.0 | 11.0 | 0.01 | 0.14 | 0.01 | 89 | 1009.4 |
| 20260507062134 | 60 | 348 | 3.0 | 8.0 | 0.01 | 0.14 | 0.01 | 90 | 1009.5 |
| 20260507062036 | 60 | 344 | 2.0 | 6.0 | 0.01 | 0.14 | 0.01 | 89 | 1009.5 |
| 20260507061948 | 60 | 22 | 2.0 | 8.0 | 0.01 | 0.14 | 0.01 | 90 | 1009.4 |
| 20260507061845 | 60 | 10 | 1.0 | 8.0 | 0.01 | 0.14 | 0.01 | 89 | 1009.4 |
| 20260507061738 | 60 | 360 | 2.0 | 8.0 | 0.01 | 0.14 | 0.01 | 89 | 1009.2 |
| 20260507061656 | 60 | 352 | 2.0 | 8.0 | 0.01 | 0.14 | 0.01 | 89 | 1009.3 |
| 20260507061653 | 60 | 13 | 3.0 | 8.0 | 0.01 | 0.14 | 0.01 | 89 | 1009.5 |
| 20260507061434 | 60 | 344 | 3.0 | 8.0 | 0.01 | 0.14 | 0.01 | 89 | 1009.6 |
| 20260507061328 | 60 | 344 | 3.0 | 8.0 | 0.01 | 0.14 | 0.01 | 89 | 1009.5 |
| 20260507061222 | 60 | 360 | 4.0 | 8.0 | 0.01 | 0.14 | 0.01 | 89 | 1009.4 |
| 20260507061130 | 60 | 360 | 3.0 | 9.0 | 0.01 | 0.14 | 0.01 | 89 | 1009.5 |
| 20260507061040 | 60 | 44 | 2.0 | 9.0 | 0.01 | 0.14 | 0.01 | 89 | 1009.5 |
| 20260507060941 | 60 | 15 | 3.0 | 9.0 | 0.01 | 0.14 | 0.01 | 89 | 1009.5 |
| 20260507060840 | 60 | 24 | 3.0 | 9.0 | 0.01 | 0.14 | 0.01 | 89 | 1009.5 |
| 20260507060723 | 60 | 349 | 3.0 | 9.0 | 0.01 | 0.14 | 0.01 | 89 | 1009.7 |
| 20260507060623 | 60 | 31 | 4.0 | 9.0 | 0.01 | 0.14 | 0.01 | 89 | 1009.7 |
| 20260507060517 | 60 | 35 | 4.0 | 9.0 | 0.01 | 0.14 | 0.01 | 89 | 1009.6 |
| 20260507060445 | 60 | 9 | 5.0 | 9.0 | 0.01 | 0.14 | 0.01 | 88 | 1009.7 |
| 20260507060326 | 61 | 5 | 4.0 | 9.0 | 0.01 | 0.14 | 0.01 | 88 | 1009.7 |
| 20260507060247 | 61 | 12 | 3.0 | 9.0 | 0.01 | 0.14 | 0.01 | 88 | 1009.8 |
| 20260507060203 | 61 | 360 | 4.0 | 9.0 | 0.01 | 0.14 | 0.01 | 88 | 1009.9 |
| 20260507060134 | 61 | 342 | 5.0 | 9.0 | 0.01 | 0.14 | 0.01 | 88 | 1010.1 |
| 20260507055916 | 61 | 334 | 4.0 | 9.0 | 0.01 | 0.14 | 0.01 | 88 | 1010.1 |
| 20260507055837 | 61 | 339 | 3.0 | 9.0 | 0.01 | 0.14 | 0.01 | 88 | 1010.1 |
| 20260507055729 | 61 | 342 | 4.0 | 9.0 | 0.01 | 0.14 | 0.01 | 88 | 1010.1 |
| 20260507055630 | 61 | 325 | 4.0 | 9.0 | 0.01 | 0.14 | 0.01 | 88 | 1010.0 |
| 20260507055534 | 61 | 298 | 4.0 | 9.0 | 0.01 | 0.14 | 0.01 | 88 | 1010.1 |
| 20260507055435 | 61 | 321 | 4.0 | 9.0 | 0.01 | 0.14 | 0.01 | 88 | 1010.0 |
| 20260507055336 | 61 | 323 | 5.0 | 9.0 | 0.01 | 0.14 | 0.01 | 87 | 1010.1 |
| 20260507055220 | 61 | 317 | 6.0 | 9.0 | 0.01 | 0.14 | 0.01 | 87 | 1010.0 |
| 20260507055142 | 61 | 329 | 6.0 | 9.0 | 0.01 | 0.14 | 0.01 | 87 | 1010.0 |
| 20260507055008 | 61 | 327 | 5.0 | 9.0 | 0.01 | 0.14 | 0.01 | 87 | 1010.1 |
| 20260507055004 | 61 | 300 | 5.0 | 9.0 | 0.01 | 0.14 | 0.01 | 87 | 1010.1 |
| 20260507054818 | 61 | 336 | 6.0 | 9.0 | 0.01 | 0.14 | 0.01 | 87 | 1010.2 |
| 20260507054728 | 61 | 299 | 5.0 | 9.0 | 0.01 | 0.14 | 0.01 | 87 | 1010.2 |
| 20260507054635 | 61 | 319 | 5.0 | 8.0 | 0.01 | 0.14 | 0.01 | 87 | 1010.0 |
| 20260507054617 | 61 | 321 | 5.0 | 8.0 | 0.01 | 0.14 | 0.01 | 87 | 1009.9 |
| 20260507054440 | 61 | 323 | 5.0 | 8.0 | 0.01 | 0.14 | 0.01 | 87 | 1009.9 |
| 20260507054328 | 61 | 321 | 4.0 | 8.0 | 0.01 | 0.14 | 0.01 | 87 | 1009.9 |
| 20260507054230 | 61 | 333 | 3.0 | 5.0 | 0.01 | 0.14 | 0.01 | 87 | 1009.8 |
| 20260507054117 | 62 | 340 | 2.0 | 4.0 | 0.01 | 0.14 | 0.01 | 87 | 1009.6 |
| 20260507054032 | 62 | 342 | 2.0 | 6.0 | 0.01 | 0.14 | 0.01 | 86 | 1009.7 |
| 20260507053937 | 62 | 342 | 2.0 | 6.0 | 0.01 | 0.14 | 0.01 | 87 | 1009.7 |
| 20260507053844 | 62 | 321 | 2.0 | 6.0 | 0.01 | 0.14 | 0.01 | 87 | 1009.7 |
| 20260507053718 | 62 | 346 | 1.0 | 8.0 | 0.01 | 0.14 | 0.01 | 87 | 1009.8 |
| 20260507053642 | 62 | 350 | 1.0 | 8.0 | 0.01 | 0.14 | 0.01 | 86 | 1009.8 |
| 20260507053532 | 62 | 332 | 1.0 | 8.0 | 0.01 | 0.14 | 0.01 | 86 | 1009.8 |
| 20260507053438 | 62 | 350 | 1.0 | 8.0 | 0.01 | 0.14 | 0.01 | 86 | 1009.8 |
| 20260507053317 | 62 | 350 | 2.0 | 8.0 | 0.01 | 0.14 | 0.01 | 86 | 1009.8 |
| 20260507053248 | 62 | 350 | 3.0 | 8.0 | 0.01 | 0.14 | 0.01 | 87 | 1009.9 |
| 20260507053116 | 62 | 348 | 2.0 | 8.0 | 0.01 | 0.14 | 0.01 | 87 | 1009.9 |
| 20260507053113 | 62 | 350 | 3.0 | 8.0 | 0.01 | 0.14 | 0.01 | 86 | 1009.8 |
| 20260507052919 | 62 | 9 | 4.0 | 8.0 | 0.01 | 0.14 | 0.01 | 86 | 1009.9 |
| 20260507052826 | 62 | 340 | 3.0 | 8.0 | 0.01 | 0.14 | 0.01 | 87 | 1009.9 |
| 20260507052729 | 62 | 335 | 2.0 | 8.0 | 0.01 | 0.14 | 0.01 | 87 | 1010.1 |
| 20260507052628 | 62 | 298 | 2.0 | 8.0 | 0.01 | 0.14 | 0.01 | 87 | 1010.2 |
| 20260507052537 | 63 | 298 | 3.0 | 8.0 | 0.01 | 0.14 | 0.01 | 87 | 1010.3 |
| 20260507052437 | 63 | 314 | 4.0 | 8.0 | 0.01 | 0.14 | 0.01 | 86 | 1010.4 |
| 20260507052314 | 63 | 322 | 3.0 | 9.0 | 0.00 | 0.13 | 0.00 | 86 | 1010.3 |
| 20260507052220 | 63 | 300 | 3.0 | 9.0 | 0.00 | 0.13 | 0.00 | 86 | 1010.3 |
| 20260507052122 | 63 | 286 | 4.0 | 9.0 | 0.00 | 0.13 | 0.00 | 86 | 1010.2 |
| 20260507052042 | 63 | 340 | 4.0 | 9.0 | 0.00 | 0.13 | 0.00 | 86 | 1010.2 |
| 20260507051934 | 63 | 313 | 4.0 | 9.0 | 0.00 | 0.13 | 0.00 | 86 | 1010.2 |
| 20260507051834 | 63 | 326 | 4.0 | 9.0 | 0.00 | 0.13 | 0.00 | 87 | 1010.2 |
| 20260507051732 | 63 | 346 | 4.0 | 9.0 | 0.00 | 0.13 | 0.00 | 87 | 1010.3 |
| 20260507051630 | 63 | 321 | 4.0 | 9.0 | 0.00 | 0.13 | 0.00 | 87 | 1010.3 |
| 20260507051422 | 63 | 307 | 3.0 | 8.0 | 0.00 | 0.13 | 0.00 | 88 | 1010.2 |
| 20260507051332 | 63 | 336 | 4.0 | 8.0 | 0.00 | 0.13 | 0.00 | 88 | 1010.2 |
| 20260507051235 | 63 | 348 | 5.0 | 8.0 | 0.00 | 0.13 | 0.00 | 88 | 1010.2 |
| 20260507051133 | 63 | 352 | 4.0 | 8.0 | 0.00 | 0.13 | 0.00 | 88 | 1010.2 |
| 20260507051036 | 63 | 338 | 3.0 | 6.0 | 0.00 | 0.13 | 0.00 | 88 | 1010.2 |
| 20260507050935 | 63 | 348 | 3.0 | 6.0 | 0.00 | 0.13 | 0.00 | 88 | 1010.2 |
| 20260507050819 | 63 | 336 | 3.0 | 6.0 | 0.00 | 0.13 | 0.00 | 89 | 1010.3 |
| 20260507050728 | 64 | 262 | 2.0 | 6.0 | 0.00 | 0.13 | 0.00 | 89 | 1010.4 |
| 20260507050618 | 64 | 310 | 2.0 | 7.0 | 0.00 | 0.13 | 0.00 | 89 | 1010.3 |
| 20260507050515 | 64 | 321 | 2.0 | 7.0 | 0.00 | 0.13 | 0.00 | 89 | 1010.3 |
| 20260507050434 | 64 | 320 | 3.0 | 7.0 | 0.00 | 0.13 | 0.00 | 89 | 1010.3 |
| 20260507050340 | 64 | 302 | 3.0 | 7.0 | 0.00 | 0.13 | 0.00 | 89 | 1010.3 |
| 20260507050240 | 64 | 333 | 4.0 | 7.0 | 0.00 | 0.13 | 0.00 | 89 | 1010.3 |
| 20260507050144 | 64 | 306 | 3.0 | 7.0 | 0.00 | 0.13 | 0.00 | 89 | 1010.3 |
| 20260507050124 | 64 | 326 | 2.0 | 6.0 | 0.00 | 0.13 | 0.00 | 89 | 1010.3 |
| 20260507045928 | 64 | 329 | 2.0 | 6.0 | 0.00 | 0.13 | 0.00 | 90 | 1010.3 |
| 20260507045815 | 64 | 329 | 2.0 | 6.0 | 0.00 | 0.13 | 0.00 | 90 | 1010.2 |
| 20260507045734 | 64 | 13 | 2.0 | 6.0 | 0.00 | 0.13 | 0.00 | 90 | 1010.2 |
| 20260507045624 | 63 | 343 | 3.0 | 6.0 | 0.00 | 0.13 | 0.00 | 90 | 1010.2 |
| 20260507045529 | 63 | 348 | 4.0 | 6.0 | 0.00 | 0.13 | 0.00 | 90 | 1010.2 |
| 20260507045432 | 63 | 333 | 4.0 | 6.0 | 0.00 | 0.13 | 0.00 | 90 | 1010.2 |
| 20260507045330 | 63 | 15 | 3.0 | 6.0 | 0.00 | 0.13 | 0.00 | 90 | 1010.1 |
| 20260507045205 | 63 | 351 | 2.0 | 5.0 | 0.00 | 0.13 | 0.00 | 90 | 1010.1 |
| 20260507045130 | 63 | 333 | 2.0 | 3.0 | 0.00 | 0.13 | 0.00 | 90 | 1010.0 |
| 20260507045021 | 63 | 313 | 2.0 | 3.0 | 0.00 | 0.13 | 0.00 | 90 | 1010.0 |
| 20260507044935 | 63 | 306 | 1.0 | 3.0 | 0.00 | 0.13 | 0.00 | 90 | 1010.1 |
| 20260507044819 | 63 | 220 | 1.0 | 2.0 | 0.00 | 0.13 | 0.00 | 90 | 1010.1 |
| 20260507044718 | 63 | 220 | 0.0 | 2.0 | 0.00 | 0.13 | 0.00 | 89 | 1010.1 |
| 20260507044708 | 63 | 220 | 0.0 | 1.0 | 0.00 | 0.13 | 0.00 | 89 | 1010.1 |
| 20260507044621 | 63 | 220 | 0.0 | 1.0 | 0.00 | 0.13 | 0.00 | 89 | 1010.1 |
| 20260507044434 | 63 | 220 | 0.0 | 1.0 | 0.00 | 0.13 | 0.00 | 89 | 1010.1 |
| 20260507044314 | 63 | 220 | 0.0 | 1.0 | 0.00 | 0.13 | 0.00 | 89 | 1010.1 |
| 20260507044241 | 63 | 220 | 0.0 | 1.0 | 0.00 | 0.13 | 0.00 | 89 | 1010.1 |
| 20260507044132 | 63 | 220 | 0.0 | 1.0 | 0.00 | 0.13 | 0.00 | 89 | 1010.2 |
| 20260507044012 | 63 | 220 | 0.0 | 1.0 | 0.00 | 0.13 | 0.00 | 89 | 1010.2 |
| 20260507043949 | 63 | 220 | 0.0 | 1.0 | 0.00 | 0.13 | 0.00 | 89 | 1010.2 |
| 20260507043820 | 63 | 220 | 0.0 | 1.0 | 0.00 | 0.13 | 0.00 | 89 | 1010.1 |
| 20260507043732 | 63 | 220 | 0.0 | 1.0 | 0.00 | 0.13 | 0.00 | 90 | 1010.2 |
| 20260507043617 | 63 | 220 | 0.0 | 1.0 | 0.00 | 0.13 | 0.00 | 89 | 1010.2 |
| 20260507043527 | 63 | 220 | 0.0 | 1.0 | 0.00 | 0.13 | 0.00 | 89 | 1010.1 |
| 20260507043417 | 63 | 220 | 0.0 | 1.0 | 0.00 | 0.13 | 0.00 | 89 | 1010.1 |
| 20260507043340 | 63 | 220 | 0.0 | 1.0 | 0.00 | 0.13 | 0.00 | 89 | 1010.1 |
| 20260507043235 | 63 | 220 | 0.0 | 1.0 | 0.00 | 0.13 | 0.00 | 89 | 1010.2 |
| 20260507043205 | 63 | 220 | 0.0 | 1.0 | 0.00 | 0.13 | 0.00 | 90 | 1010.1 |
| 20260507043139 | 63 | 220 | 0.0 | 1.0 | 0.00 | 0.13 | 0.00 | 90 | 1010.1 |
| 20260507042919 | 63 | 220 | 0.0 | 1.0 | 0.00 | 0.13 | 0.00 | 90 | 1010.1 |
| 20260507042821 | 63 | 220 | 0.0 | 1.0 | 0.00 | 0.13 | 0.00 | 90 | 1010.1 |
| 20260507042742 | 63 | 220 | 0.0 | 1.0 | 0.00 | 0.13 | 0.00 | 90 | 1010.1 |
| 20260507042623 | 63 | 220 | 0.0 | 1.0 | 0.00 | 0.13 | 0.00 | 90 | 1010.0 |
| 20260507042526 | 63 | 220 | 0.0 | 1.0 | 0.00 | 0.13 | 0.00 | 89 | 1010.1 |
| 20260507042426 | 63 | 220 | 0.0 | 1.0 | 0.00 | 0.13 | 0.00 | 89 | 1010.0 |
| 20260507042339 | 63 | 220 | 0.0 | 1.0 | 0.00 | 0.13 | 0.00 | 89 | 1010.0 |
| 20260507042218 | 63 | 220 | 0.0 | 1.0 | 0.00 | 0.13 | 0.00 | 89 | 1010.0 |
| 20260507042141 | 63 | 220 | 0.0 | 1.0 | 0.00 | 0.13 | 0.00 | 89 | 1010.0 |
| 20260507042024 | 63 | 220 | 0.0 | 1.0 | 0.00 | 0.13 | 0.00 | 89 | 1010.0 |
| 20260507041926 | 63 | 220 | 0.0 | 1.0 | 0.00 | 0.13 | 0.00 | 89 | 1010.0 |
| 20260507041838 | 63 | 220 | 0.0 | 1.0 | 0.00 | 0.13 | 0.00 | 89 | 1009.9 |
| 20260507041721 | 63 | 220 | 0.0 | 1.0 | 0.00 | 0.13 | 0.00 | 89 | 1010.0 |
| 20260507041653 | 63 | 220 | 0.0 | 1.0 | 0.00 | 0.13 | 0.00 | 89 | 1009.9 |
| 20260507041428 | 63 | 220 | 0.0 | 1.0 | 0.00 | 0.13 | 0.00 | 89 | 1009.9 |
| 20260507041334 | 63 | 220 | 0.0 | 1.0 | 0.00 | 0.13 | 0.00 | 89 | 1009.9 |
| 20260507041233 | 63 | 220 | 0.0 | 1.0 | 0.00 | 0.13 | 0.00 | 89 | 1009.9 |
| 20260507041124 | 63 | 220 | 0.0 | 1.0 | 0.00 | 0.13 | 0.00 | 89 | 1009.9 |
| 20260507041027 | 63 | 220 | 0.0 | 1.0 | 0.00 | 0.13 | 0.00 | 89 | 1009.8 |
| 20260507040939 | 63 | 220 | 0.0 | 1.0 | 0.00 | 0.13 | 0.00 | 89 | 1009.9 |
| 20260507040823 | 63 | 220 | 0.0 | 1.0 | 0.00 | 0.13 | 0.00 | 88 | 1009.8 |
| 20260507040726 | 63 | 220 | 0.0 | 1.0 | 0.00 | 0.13 | 0.00 | 88 | 1009.9 |
| 20260507040614 | 63 | 220 | 0.0 | 1.0 | 0.00 | 0.13 | 0.00 | 89 | 1009.8 |
| 20260507040533 | 63 | 220 | 0.0 | 1.0 | 0.00 | 0.13 | 0.00 | 89 | 1009.9 |
| 20260507040436 | 63 | 220 | 0.0 | 1.0 | 0.00 | 0.13 | 0.00 | 89 | 1009.8 |
| 20260507040328 | 63 | 220 | 0.0 | 1.0 | 0.00 | 0.13 | 0.00 | 89 | 1009.8 |
| 20260507040223 | 63 | 220 | 0.0 | 1.0 | 0.00 | 0.13 | 0.00 | 89 | 1009.8 |
| 20260507040100 | 63 | 220 | 0.0 | 1.0 | 0.00 | 0.13 | 0.00 | 89 | 1009.8 |
| 20260507035918 | 63 | 220 | 0.0 | 1.0 | 0.00 | 0.13 | 0.13 | 89 | 1009.8 |
| 20260507035832 | 63 | 220 | 0.0 | 1.0 | 0.00 | 0.13 | 0.13 | 89 | 1009.8 |
| 20260507035726 | 63 | 220 | 0.0 | 2.0 | 0.00 | 0.13 | 0.13 | 89 | 1009.8 |
| 20260507035622 | 63 | 220 | 0.0 | 2.0 | 0.00 | 0.13 | 0.13 | 89 | 1009.8 |
| 20260507035522 | 63 | 220 | 0.0 | 2.0 | 0.00 | 0.13 | 0.13 | 89 | 1009.8 |
| 20260507035419 | 63 | 220 | 0.0 | 2.0 | 0.00 | 0.13 | 0.13 | 89 | 1009.8 |
| 20260507035317 | 63 | 220 | 0.0 | 2.0 | 0.00 | 0.13 | 0.13 | 89 | 1009.8 |
| 20260507035229 | 63 | 220 | 0.0 | 2.0 | 0.00 | 0.13 | 0.13 | 89 | 1009.7 |
| 20260507035124 | 63 | 220 | 0.0 | 2.0 | 0.00 | 0.13 | 0.13 | 89 | 1009.7 |
| 20260507035018 | 63 | 220 | 0.0 | 2.0 | 0.00 | 0.13 | 0.13 | 89 | 1009.8 |
| 20260507034922 | 63 | 220 | 0.0 | 2.0 | 0.00 | 0.13 | 0.13 | 89 | 1009.8 |
| 20260507034818 | 63 | 220 | 0.0 | 2.0 | 0.00 | 0.13 | 0.13 | 89 | 1009.8 |
| 20260507034742 | 63 | 220 | 0.0 | 2.0 | 0.00 | 0.13 | 0.13 | 89 | 1009.8 |
| 20260507034628 | 63 | 220 | 0.0 | 2.0 | 0.00 | 0.13 | 0.13 | 89 | 1009.9 |
| 20260507034440 | 63 | 220 | 0.0 | 2.0 | 0.00 | 0.13 | 0.13 | 89 | 1010.0 |
| 20260507034338 | 63 | 220 | 0.0 | 2.0 | 0.00 | 0.13 | 0.13 | 89 | 1010.0 |
| 20260507034236 | 63 | 220 | 0.0 | 2.0 | 0.00 | 0.13 | 0.13 | 88 | 1010.0 |
| 20260507034114 | 63 | 220 | 0.0 | 2.0 | 0.00 | 0.13 | 0.13 | 88 | 1010.1 |
| 20260507034017 | 63 | 220 | 0.0 | 2.0 | 0.00 | 0.13 | 0.13 | 88 | 1010.1 |
| 20260507033930 | 64 | 220 | 0.0 | 2.0 | 0.00 | 0.13 | 0.13 | 88 | 1010.2 |
| 20260507033815 | 64 | 220 | 0.0 | 2.0 | 0.00 | 0.13 | 0.13 | 88 | 1010.2 |
| 20260507033725 | 64 | 220 | 0.0 | 2.0 | 0.00 | 0.13 | 0.13 | 88 | 1010.2 |
| 20260507033617 | 64 | 220 | 0.0 | 1.0 | 0.00 | 0.13 | 0.13 | 88 | 1010.2 |
| 20260507033515 | 64 | 220 | 0.0 | 1.0 | 0.00 | 0.13 | 0.13 | 87 | 1010.2 |
| 20260507033439 | 64 | 220 | 0.0 | 1.0 | 0.00 | 0.13 | 0.13 | 87 | 1010.3 |
| 20260507033322 | 64 | 220 | 0.0 | 1.0 | 0.00 | 0.13 | 0.13 | 87 | 1010.2 |
| 20260507033234 | 64 | 220 | 0.0 | 1.0 | 0.00 | 0.13 | 0.13 | 88 | 1010.3 |
| 20260507033149 | 64 | 220 | 0.0 | 1.0 | 0.00 | 0.13 | 0.13 | 88 | 1010.2 |
| 20260507033146 | 64 | 220 | 0.0 | 0.0 | 0.00 | 0.13 | 0.13 | 88 | 1010.2 |
| 20260507032933 | 63 | 220 | 0.0 | 0.0 | 0.00 | 0.13 | 0.13 | 88 | 1010.2 |
| 20260507032843 | 63 | 220 | 0.0 | 0.0 | 0.00 | 0.13 | 0.13 | 88 | 1010.2 |
| 20260507032736 | 63 | 220 | 0.0 | 1.0 | 0.00 | 0.13 | 0.13 | 88 | 1010.2 |
| 20260507032640 | 63 | 220 | 0.0 | 1.0 | 0.00 | 0.13 | 0.13 | 88 | 1010.1 |
| 20260507032523 | 63 | 220 | 0.0 | 1.0 | 0.00 | 0.13 | 0.13 | 88 | 1010.1 |
| 20260507032435 | 63 | 220 | 0.0 | 1.0 | 0.00 | 0.13 | 0.13 | 88 | 1010.0 |
| 20260507032317 | 63 | 220 | 0.0 | 1.0 | 0.00 | 0.13 | 0.13 | 88 | 1010.0 |
| 20260507032214 | 63 | 220 | 0.0 | 1.0 | 0.00 | 0.13 | 0.13 | 88 | 1010.0 |
| 20260507032124 | 63 | 220 | 0.0 | 1.0 | 0.00 | 0.13 | 0.13 | 88 | 1010.0 |
| 20260507032023 | 63 | 220 | 0.0 | 1.0 | 0.00 | 0.13 | 0.13 | 88 | 1010.0 |
| 20260507031914 | 63 | 220 | 0.0 | 1.0 | 0.00 | 0.13 | 0.13 | 88 | 1010.0 |
| 20260507031831 | 63 | 220 | 0.0 | 1.0 | 0.00 | 0.13 | 0.13 | 88 | 1009.9 |
| 20260507031722 | 63 | 220 | 0.0 | 1.0 | 0.00 | 0.13 | 0.13 | 88 | 1009.9 |
| 20260507031645 | 63 | 220 | 0.0 | 1.0 | 0.00 | 0.13 | 0.13 | 88 | 1009.8 |
| 20260507031431 | 63 | 220 | 0.0 | 1.0 | 0.00 | 0.13 | 0.13 | 88 | 1009.7 |
| 20260507031339 | 63 | 220 | 0.0 | 1.0 | 0.00 | 0.13 | 0.13 | 88 | 1009.7 |
| 20260507031216 | 63 | 220 | 0.0 | 1.0 | 0.00 | 0.13 | 0.13 | 88 | 1009.7 |
| 20260507031129 | 63 | 220 | 0.0 | 1.0 | 0.00 | 0.13 | 0.13 | 88 | 1009.7 |
| 20260507031036 | 63 | 220 | 0.0 | 1.0 | 0.00 | 0.13 | 0.13 | 88 | 1009.6 |
| 20260507030923 | 63 | 220 | 0.0 | 1.0 | 0.00 | 0.13 | 0.13 | 88 | 1009.7 |
| 20260507030840 | 63 | 220 | 0.0 | 1.0 | 0.00 | 0.13 | 0.13 | 87 | 1009.6 |
| 20260507030722 | 63 | 220 | 0.0 | 1.0 | 0.00 | 0.13 | 0.13 | 87 | 1009.7 |
| 20260507030632 | 63 | 220 | 0.0 | 1.0 | 0.00 | 0.13 | 0.13 | 87 | 1009.6 |
| 20260507030539 | 63 | 220 | 0.0 | 1.0 | 0.00 | 0.13 | 0.13 | 88 | 1009.7 |
| 20260507030426 | 63 | 220 | 0.0 | 1.0 | 0.00 | 0.13 | 0.13 | 87 | 1009.6 |
| 20260507030332 | 64 | 220 | 0.0 | 1.0 | 0.00 | 0.13 | 0.13 | 87 | 1009.6 |
| 20260507030242 | 64 | 220 | 0.0 | 1.0 | 0.00 | 0.13 | 0.13 | 87 | 1009.6 |
| 20260507030201 | 64 | 220 | 0.0 | 1.0 | 0.00 | 0.13 | 0.13 | 87 | 1009.4 |
| 20260507025914 | 64 | 220 | 0.0 | 1.0 | 0.00 | 0.13 | 0.13 | 87 | 1009.4 |
| 20260507025837 | 64 | 220 | 0.0 | 1.0 | 0.00 | 0.13 | 0.13 | 87 | 1009.3 |
| 20260507025726 | 64 | 220 | 0.0 | 1.0 | 0.00 | 0.13 | 0.13 | 86 | 1009.3 |
| 20260507025626 | 64 | 220 | 0.0 | 1.0 | 0.00 | 0.13 | 0.13 | 86 | 1009.3 |
| 20260507025533 | 64 | 220 | 0.0 | 1.0 | 0.00 | 0.13 | 0.13 | 86 | 1009.3 |
| 20260507025434 | 64 | 220 | 0.0 | 1.0 | 0.00 | 0.13 | 0.13 | 86 | 1009.2 |
| 20260507025356 | 64 | 220 | 0.0 | 0.0 | 0.00 | 0.13 | 0.13 | 86 | 1009.2 |
| 20260507025221 | 64 | 220 | 0.0 | 0.0 | 0.00 | 0.13 | 0.13 | 86 | 1009.1 |
| 20260507025122 | 64 | 220 | 0.0 | 1.0 | 0.00 | 0.13 | 0.13 | 86 | 1009.2 |
| 20260507025021 | 64 | 220 | 0.0 | 1.0 | 0.00 | 0.13 | 0.13 | 86 | 1009.2 |
| 20260507024931 | 64 | 220 | 0.0 | 2.0 | 0.00 | 0.13 | 0.13 | 86 | 1009.2 |
| 20260507024821 | 64 | 220 | 0.0 | 2.0 | 0.00 | 0.13 | 0.13 | 86 | 1009.3 |
| 20260507024740 | 64 | 220 | 0.0 | 2.0 | 0.00 | 0.13 | 0.13 | 86 | 1009.2 |
| 20260507024619 | 64 | 220 | 0.0 | 2.0 | 0.00 | 0.13 | 0.13 | 86 | 1009.2 |
| 20260507024439 | 64 | 220 | 0.0 | 2.0 | 0.00 | 0.13 | 0.13 | 85 | 1009.1 |
| 20260507024316 | 64 | 220 | 0.0 | 2.0 | 0.00 | 0.13 | 0.13 | 85 | 1009.1 |
| 20260507024240 | 64 | 220 | 0.0 | 2.0 | 0.00 | 0.13 | 0.13 | 85 | 1009.1 |
| 20260507024139 | 64 | 220 | 0.0 | 2.0 | 0.00 | 0.13 | 0.13 | 85 | 1009.2 |
| 20260507024024 | 64 | 220 | 0.0 | 2.0 | 0.00 | 0.13 | 0.13 | 85 | 1009.1 |
| 20260507023922 | 64 | 220 | 0.0 | 2.0 | 0.00 | 0.13 | 0.13 | 84 | 1009.3 |
| 20260507023818 | 64 | 220 | 0.0 | 2.0 | 0.00 | 0.13 | 0.13 | 84 | 1009.3 |
| 20260507023725 | 65 | 220 | 0.0 | 2.0 | 0.00 | 0.13 | 0.13 | 84 | 1009.2 |
| 20260507023630 | 65 | 220 | 0.0 | 2.0 | 0.00 | 0.13 | 0.13 | 84 | 1009.2 |
| 20260507023526 | 65 | 220 | 0.0 | 2.0 | 0.00 | 0.13 | 0.13 | 84 | 1009.3 |
| 20260507023450 | 65 | 220 | 0.0 | 2.0 | 0.00 | 0.13 | 0.13 | 83 | 1009.3 |
| 20260507023330 | 65 | 220 | 0.0 | 2.0 | 0.00 | 0.13 | 0.13 | 83 | 1009.3 |
| 20260507023217 | 65 | 220 | 0.0 | 2.0 | 0.00 | 0.13 | 0.13 | 82 | 1009.3 |
| 20260507023155 | 66 | 220 | 0.0 | 2.0 | 0.00 | 0.13 | 0.13 | 82 | 1009.4 |
| 20260507023108 | 66 | 220 | 0.0 | 2.0 | 0.00 | 0.13 | 0.13 | 82 | 1009.4 |
| 20260507022929 | 66 | 220 | 0.0 | 2.0 | 0.00 | 0.13 | 0.13 | 82 | 1009.5 |
| 20260507022845 | 66 | 220 | 0.0 | 2.0 | 0.00 | 0.13 | 0.13 | 82 | 1009.4 |
| 20260507022731 | 66 | 220 | 0.0 | 2.0 | 0.00 | 0.13 | 0.13 | 82 | 1009.5 |
| 20260507022637 | 66 | 220 | 0.0 | 2.0 | 0.00 | 0.13 | 0.13 | 82 | 1009.5 |
| 20260507022523 | 66 | 220 | 0.0 | 2.0 | 0.00 | 0.13 | 0.13 | 82 | 1009.5 |
| 20260507022414 | 66 | 220 | 0.0 | 2.0 | 0.00 | 0.13 | 0.13 | 82 | 1009.5 |
| 20260507022345 | 66 | 220 | 0.0 | 2.0 | 0.00 | 0.13 | 0.13 | 82 | 1009.5 |
| 20260507022227 | 66 | 220 | 0.0 | 2.0 | 0.00 | 0.13 | 0.13 | 82 | 1009.6 |
| 20260507022137 | 66 | 220 | 0.0 | 2.0 | 0.00 | 0.13 | 0.13 | 82 | 1009.6 |
| 20260507022025 | 66 | 220 | 0.0 | 2.0 | 0.00 | 0.13 | 0.13 | 82 | 1009.6 |
| 20260507021939 | 66 | 220 | 0.0 | 2.0 | 0.00 | 0.13 | 0.13 | 82 | 1009.6 |
| 20260507021832 | 66 | 220 | 0.0 | 2.0 | 0.00 | 0.13 | 0.13 | 82 | 1009.6 |
| 20260507021737 | 66 | 220 | 0.0 | 2.0 | 0.00 | 0.13 | 0.13 | 82 | 1009.6 |
| 20260507021638 | 66 | 220 | 0.0 | 2.0 | 0.00 | 0.13 | 0.13 | 82 | 1009.7 |
| 20260507021425 | 66 | 220 | 0.0 | 3.0 | 0.00 | 0.13 | 0.13 | 82 | 1009.8 |
| 20260507021335 | 66 | 220 | 0.0 | 3.0 | 0.00 | 0.13 | 0.13 | 82 | 1009.8 |
| 20260507021219 | 66 | 220 | 0.0 | 3.0 | 0.00 | 0.13 | 0.13 | 81 | 1009.9 |
| 20260507021134 | 66 | 220 | 0.0 | 3.0 | 0.00 | 0.13 | 0.13 | 81 | 1009.9 |
| 20260507021033 | 66 | 204 | 0.0 | 3.0 | 0.00 | 0.13 | 0.13 | 81 | 1009.9 |
| 20260507020938 | 66 | 200 | 1.0 | 3.0 | 0.00 | 0.13 | 0.13 | 81 | 1009.9 |
| 20260507020842 | 66 | 200 | 1.0 | 3.0 | 0.00 | 0.13 | 0.13 | 82 | 1009.9 |
| 20260507020729 | 66 | 200 | 0.0 | 3.0 | 0.00 | 0.13 | 0.13 | 82 | 1009.9 |
| 20260507020617 | 66 | 200 | 0.0 | 3.0 | 0.00 | 0.13 | 0.13 | 82 | 1010.0 |
| 20260507020525 | 66 | 200 | 0.0 | 3.0 | 0.00 | 0.13 | 0.13 | 82 | 1010.0 |
| 20260507020434 | 66 | 200 | 0.0 | 3.0 | 0.00 | 0.13 | 0.13 | 82 | 1010.0 |
| 20260507020338 | 66 | 200 | 0.0 | 3.0 | 0.00 | 0.13 | 0.13 | 82 | 1010.0 |
| 20260507020233 | 66 | 209 | 0.0 | 3.0 | 0.00 | 0.13 | 0.13 | 82 | 1010.0 |
| 20260507020148 | 66 | 209 | 1.0 | 3.0 | 0.00 | 0.13 | 0.13 | 82 | 1010.0 |
| 20260507015917 | 66 | 198 | 1.0 | 3.0 | 0.00 | 0.13 | 0.13 | 83 | 1010.0 |
| 20260507015839 | 65 | 227 | 1.0 | 3.0 | 0.00 | 0.13 | 0.13 | 83 | 1010.0 |
| 20260507015722 | 65 | 193 | 1.0 | 3.0 | 0.00 | 0.13 | 0.13 | 83 | 1010.1 |
| 20260507015616 | 65 | 193 | 1.0 | 3.0 | 0.00 | 0.13 | 0.13 | 83 | 1010.1 |
| 20260507015521 | 65 | 216 | 1.0 | 2.0 | 0.00 | 0.13 | 0.13 | 84 | 1009.9 |
| 20260507015420 | 65 | 216 | 0.0 | 2.0 | 0.00 | 0.13 | 0.13 | 84 | 1010.0 |
| 20260507015322 | 65 | 216 | 0.0 | 2.0 | 0.00 | 0.13 | 0.13 | 84 | 1009.9 |
| 20260507015218 | 65 | 216 | 0.0 | 2.0 | 0.00 | 0.13 | 0.13 | 84 | 1009.9 |
| 20260507015124 | 65 | 216 | 0.0 | 2.0 | 0.00 | 0.13 | 0.13 | 84 | 1009.9 |
| 20260507015033 | 65 | 216 | 0.0 | 2.0 | 0.00 | 0.13 | 0.13 | 84 | 1009.8 |
| 20260507014929 | 65 | 216 | 1.0 | 2.0 | 0.00 | 0.13 | 0.13 | 84 | 1009.8 |
| 20260507014841 | 65 | 216 | 0.0 | 2.0 | 0.00 | 0.13 | 0.13 | 84 | 1009.7 |
| 20260507014728 | 65 | 216 | 0.0 | 2.0 | 0.00 | 0.13 | 0.13 | 85 | 1009.8 |
| 20260507014700 | 65 | 216 | 0.0 | 2.0 | 0.00 | 0.13 | 0.13 | 84 | 1009.7 |
| 20260507014624 | 65 | 216 | 0.0 | 2.0 | 0.00 | 0.13 | 0.13 | 84 | 1009.7 |
| 20260507014429 | 65 | 216 | 0.0 | 2.0 | 0.00 | 0.13 | 0.13 | 84 | 1009.7 |
| 20260507014336 | 65 | 216 | 0.0 | 2.0 | 0.00 | 0.13 | 0.13 | 84 | 1009.7 |
| 20260507014224 | 65 | 216 | 0.0 | 2.0 | 0.00 | 0.13 | 0.13 | 84 | 1009.7 |
| 20260507014130 | 65 | 216 | 0.0 | 1.0 | 0.00 | 0.13 | 0.13 | 84 | 1009.6 |
| 20260507014025 | 65 | 216 | 0.0 | 1.0 | 0.00 | 0.13 | 0.13 | 84 | 1009.7 |
| 20260507013926 | 65 | 216 | 0.0 | 1.0 | 0.00 | 0.13 | 0.13 | 84 | 1009.7 |
| 20260507013822 | 65 | 216 | 0.0 | 1.0 | 0.00 | 0.13 | 0.13 | 84 | 1009.8 |
| 20260507013737 | 65 | 216 | 0.0 | 1.0 | 0.00 | 0.13 | 0.13 | 84 | 1009.9 |
| 20260507013608 | 65 | 216 | 0.0 | 1.0 | 0.00 | 0.13 | 0.13 | 83 | 1009.9 |
| 20260507013605 | 65 | 216 | 0.0 | 1.0 | 0.00 | 0.13 | 0.13 | 83 | 1009.9 |
| 20260507013419 | 65 | 216 | 0.0 | 1.0 | 0.00 | 0.13 | 0.13 | 83 | 1009.9 |
| 20260507013341 | 65 | 216 | 0.0 | 1.0 | 0.00 | 0.13 | 0.13 | 83 | 1009.8 |
| 20260507013234 | 65 | 216 | 0.0 | 1.0 | 0.00 | 0.13 | 0.13 | 83 | 1009.8 |
| 20260507013152 | 65 | 216 | 0.0 | 2.0 | 0.00 | 0.13 | 0.13 | 83 | 1009.7 |
| 20260507013133 | 65 | 216 | 0.0 | 2.0 | 0.00 | 0.13 | 0.13 | 83 | 1009.7 |
| 20260507012914 | 65 | 216 | 0.0 | 2.0 | 0.00 | 0.13 | 0.13 | 82 | 1009.8 |
| 20260507012829 | 65 | 216 | 0.0 | 2.0 | 0.00 | 0.13 | 0.13 | 82 | 1009.7 |
| 20260507012715 | 65 | 216 | 0.0 | 2.0 | 0.00 | 0.13 | 0.13 | 82 | 1009.7 |
| 20260507012641 | 65 | 216 | 0.0 | 2.0 | 0.00 | 0.13 | 0.13 | 82 | 1009.6 |
| 20260507012531 | 65 | 216 | 0.0 | 3.0 | 0.00 | 0.13 | 0.13 | 82 | 1009.6 |
| 20260507012436 | 65 | 216 | 0.0 | 3.0 | 0.00 | 0.13 | 0.13 | 82 | 1009.6 |
| 20260507012331 | 65 | 216 | 0.0 | 3.0 | 0.00 | 0.13 | 0.13 | 82 | 1009.6 |
| 20260507012241 | 65 | 216 | 0.0 | 4.0 | 0.00 | 0.13 | 0.13 | 82 | 1009.7 |
| 20260507012123 | 65 | 216 | 0.0 | 4.0 | 0.00 | 0.13 | 0.13 | 82 | 1009.7 |
| 20260507012026 | 65 | 217 | 0.0 | 4.0 | 0.00 | 0.13 | 0.13 | 82 | 1009.7 |
| 20260507011939 | 65 | 219 | 0.0 | 4.0 | 0.00 | 0.13 | 0.13 | 82 | 1009.7 |
| 20260507011818 | 65 | 219 | 1.0 | 4.0 | 0.00 | 0.13 | 0.13 | 82 | 1009.7 |
| 20260507011724 | 65 | 211 | 1.0 | 4.0 | 0.00 | 0.13 | 0.13 | 82 | 1009.6 |
| 20260507011644 | 65 | 209 | 1.0 | 4.0 | 0.00 | 0.13 | 0.13 | 82 | 1009.6 |
| 20260507011640 | 65 | 209 | 1.0 | 4.0 | 0.00 | 0.13 | 0.13 | 82 | 1009.6 |
| 20260507011440 | 65 | 246 | 1.0 | 3.0 | 0.00 | 0.13 | 0.13 | 82 | 1009.5 |
| 20260507011340 | 65 | 229 | 0.0 | 3.0 | 0.00 | 0.13 | 0.13 | 82 | 1009.6 |
| 20260507011217 | 65 | 227 | 0.0 | 3.0 | 0.00 | 0.13 | 0.13 | 82 | 1009.6 |
| 20260507011119 | 65 | 227 | 0.0 | 3.0 | 0.00 | 0.13 | 0.13 | 82 | 1009.7 |
| 20260507011044 | 66 | 227 | 1.0 | 4.0 | 0.00 | 0.13 | 0.13 | 82 | 1009.7 |
| 20260507010926 | 66 | 223 | 1.0 | 4.0 | 0.00 | 0.13 | 0.13 | 82 | 1009.7 |
| 20260507010818 | 66 | 223 | 1.0 | 4.0 | 0.00 | 0.13 | 0.13 | 82 | 1009.7 |
| 20260507010725 | 66 | 223 | 0.0 | 4.0 | 0.00 | 0.13 | 0.13 | 82 | 1009.7 |
| 20260507010630 | 66 | 213 | 0.0 | 4.0 | 0.00 | 0.13 | 0.13 | 82 | 1009.6 |
| 20260507010518 | 66 | 213 | 1.0 | 4.0 | 0.00 | 0.13 | 0.13 | 82 | 1009.7 |
| 20260507010429 | 66 | 181 | 1.0 | 4.0 | 0.00 | 0.13 | 0.13 | 82 | 1009.7 |
| 20260507010332 | 66 | 197 | 2.0 | 4.0 | 0.00 | 0.13 | 0.13 | 82 | 1009.7 |
| 20260507010237 | 66 | 205 | 2.0 | 4.0 | 0.00 | 0.13 | 0.13 | 82 | 1009.7 |
| 20260507010203 | 66 | 216 | 1.0 | 4.0 | 0.00 | 0.13 | 0.13 | 82 | 1009.7 |
| 20260507010200 | 66 | 248 | 1.0 | 4.0 | 0.00 | 0.13 | 0.13 | 82 | 1009.7 |
| 20260507005926 | 66 | 248 | 1.0 | 4.0 | 0.00 | 0.13 | 0.13 | 82 | 1009.8 |
| 20260507005829 | 66 | 248 | 1.0 | 4.0 | 0.00 | 0.13 | 0.13 | 82 | 1009.7 |
| 20260507005735 | 66 | 219 | 1.0 | 4.0 | 0.00 | 0.13 | 0.13 | 82 | 1009.7 |
| 20260507005630 | 66 | 219 | 1.0 | 4.0 | 0.00 | 0.13 | 0.13 | 82 | 1009.6 |
| 20260507005534 | 66 | 197 | 1.0 | 4.0 | 0.00 | 0.13 | 0.13 | 82 | 1009.7 |
| 20260507005424 | 66 | 195 | 0.0 | 4.0 | 0.00 | 0.13 | 0.13 | 82 | 1009.6 |
| 20260507005319 | 66 | 195 | 0.0 | 4.0 | 0.00 | 0.13 | 0.13 | 82 | 1009.6 |
| 20260507005223 | 66 | 195 | 0.0 | 4.0 | 0.00 | 0.13 | 0.13 | 82 | 1009.6 |
| 20260507005143 | 66 | 195 | 1.0 | 4.0 | 0.00 | 0.13 | 0.13 | 82 | 1009.6 |
| 20260507005020 | 66 | 195 | 1.0 | 4.0 | 0.00 | 0.13 | 0.13 | 82 | 1009.6 |
| 20260507004943 | 66 | 215 | 1.0 | 4.0 | 0.00 | 0.13 | 0.13 | 82 | 1009.6 |
| 20260507004830 | 66 | 215 | 1.0 | 4.0 | 0.00 | 0.13 | 0.13 | 82 | 1009.7 |
| 20260507004728 | 66 | 214 | 1.0 | 4.0 | 0.00 | 0.13 | 0.13 | 82 | 1009.6 |
| 20260507004630 | 66 | 226 | 1.0 | 3.0 | 0.00 | 0.13 | 0.13 | 81 | 1009.6 |
| 20260507004605 | 66 | 190 | 1.0 | 3.0 | 0.00 | 0.13 | 0.13 | 81 | 1009.5 |
| 20260507004436 | 66 | 190 | 0.0 | 3.0 | 0.00 | 0.13 | 0.13 | 82 | 1009.5 |
| 20260507004331 | 66 | 184 | 0.0 | 3.0 | 0.00 | 0.13 | 0.13 | 82 | 1009.5 |
| 20260507004234 | 66 | 184 | 0.0 | 3.0 | 0.00 | 0.13 | 0.13 | 81 | 1009.5 |
| 20260507004134 | 66 | 184 | 1.0 | 3.0 | 0.00 | 0.13 | 0.13 | 81 | 1009.4 |
| 20260507004031 | 66 | 184 | 1.0 | 3.0 | 0.00 | 0.13 | 0.13 | 81 | 1009.4 |
| 20260507003934 | 66 | 215 | 1.0 | 4.0 | 0.00 | 0.13 | 0.13 | 81 | 1009.5 |
| 20260507003842 | 66 | 226 | 0.0 | 4.0 | 0.00 | 0.13 | 0.13 | 81 | 1009.4 |
| 20260507003705 | 66 | 227 | 0.0 | 4.0 | 0.00 | 0.13 | 0.13 | 81 | 1009.5 |
| 20260507003634 | 66 | 227 | 0.0 | 4.0 | 0.00 | 0.13 | 0.13 | 81 | 1009.5 |
| 20260507003526 | 66 | 227 | 0.0 | 4.0 | 0.00 | 0.13 | 0.13 | 81 | 1009.5 |
| 20260507003420 | 66 | 227 | 1.0 | 4.0 | 0.00 | 0.13 | 0.13 | 81 | 1009.4 |
| 20260507003319 | 66 | 227 | 1.0 | 4.0 | 0.00 | 0.13 | 0.13 | 81 | 1009.4 |
| 20260507003225 | 66 | 227 | 2.0 | 4.0 | 0.00 | 0.13 | 0.13 | 81 | 1009.4 |
| 20260507003146 | 66 | 227 | 2.0 | 4.0 | 0.00 | 0.13 | 0.13 | 81 | 1009.4 |
| 20260507002927 | 66 | 203 | 0.0 | 3.0 | 0.00 | 0.13 | 0.13 | 80 | 1009.5 |
| 20260507002815 | 67 | 203 | 0.0 | 3.0 | 0.00 | 0.13 | 0.13 | 80 | 1009.5 |
| 20260507002740 | 67 | 204 | 0.0 | 4.0 | 0.00 | 0.13 | 0.13 | 81 | 1009.5 |
| 20260507002637 | 67 | 203 | 0.0 | 4.0 | 0.00 | 0.13 | 0.13 | 80 | 1009.5 |
| 20260507002525 | 67 | 204 | 1.0 | 4.0 | 0.00 | 0.13 | 0.13 | 80 | 1009.5 |
| 20260507002422 | 67 | 189 | 1.0 | 4.0 | 0.00 | 0.13 | 0.13 | 80 | 1009.5 |
| 20260507002336 | 67 | 189 | 1.0 | 4.0 | 0.00 | 0.13 | 0.13 | 80 | 1009.5 |
| 20260507002225 | 67 | 189 | 1.0 | 4.0 | 0.00 | 0.13 | 0.13 | 80 | 1009.4 |
| 20260507002139 | 67 | 152 | 0.0 | 4.0 | 0.00 | 0.13 | 0.13 | 80 | 1009.4 |
| 20260507002035 | 67 | 233 | 1.0 | 4.0 | 0.00 | 0.13 | 0.13 | 80 | 1009.5 |
| 20260507001937 | 67 | 230 | 1.0 | 4.0 | 0.00 | 0.13 | 0.13 | 80 | 1009.5 |
| 20260507001837 | 67 | 221 | 1.0 | 4.0 | 0.00 | 0.13 | 0.13 | 80 | 1009.5 |
| 20260507001730 | 67 | 212 | 1.0 | 4.0 | 0.00 | 0.13 | 0.13 | 80 | 1009.5 |
| 20260507001648 | 67 | 193 | 1.0 | 4.0 | 0.00 | 0.13 | 0.13 | 80 | 1009.5 |
| 20260507001646 | 67 | 238 | 1.0 | 4.0 | 0.00 | 0.13 | 0.13 | 80 | 1009.5 |
| 20260507001440 | 67 | 200 | 1.0 | 4.0 | 0.00 | 0.13 | 0.13 | 80 | 1009.4 |
| 20260507001332 | 67 | 198 | 0.0 | 4.0 | 0.00 | 0.13 | 0.13 | 80 | 1009.4 |
| 20260507001243 | 67 | 209 | 1.0 | 5.0 | 0.00 | 0.13 | 0.13 | 80 | 1009.4 |
| 20260507001116 | 67 | 209 | 2.0 | 5.0 | 0.00 | 0.13 | 0.13 | 80 | 1009.3 |
| 20260507001040 | 67 | 210 | 2.0 | 5.0 | 0.00 | 0.13 | 0.13 | 80 | 1009.3 |
| 20260507000938 | 67 | 171 | 1.0 | 5.0 | 0.00 | 0.13 | 0.13 | 79 | 1009.4 |
| 20260507000842 | 67 | 241 | 1.0 | 5.0 | 0.00 | 0.13 | 0.13 | 79 | 1009.3 |
| 20260507000732 | 67 | 239 | 1.0 | 5.0 | 0.00 | 0.13 | 0.13 | 79 | 1009.4 |
| 20260507000614 | 67 | 239 | 2.0 | 5.0 | 0.00 | 0.13 | 0.13 | 79 | 1009.3 |
| 20260507000609 | 67 | 220 | 2.0 | 5.0 | 0.00 | 0.13 | 0.13 | 79 | 1009.3 |
| 20260507000431 | 67 | 218 | 2.0 | 5.0 | 0.00 | 0.13 | 0.13 | 79 | 1009.2 |
| 20260507000321 | 67 | 227 | 2.0 | 5.0 | 0.00 | 0.13 | 0.13 | 79 | 1009.3 |
| 20260507000234 | 67 | 250 | 2.0 | 5.0 | 0.00 | 0.13 | 0.13 | 79 | 1009.2 |
| 20260507000205 | 67 | 228 | 1.0 | 5.0 | 0.00 | 0.13 | 0.13 | 79 | 1009.2 |
| 20260507000133 | 68 | 177 | 2.0 | 5.0 | 0.00 | 0.13 | 0.13 | 79 | 1009.1 |
| 20260506235949 | 67 | 177 | 1.0 | 5.0 | 0.00 | 0.13 | 0.13 | 79 | 1009.1 |
| 20260506235827 | 68 | 196 | 0.0 | 4.0 | 0.00 | 0.13 | 0.13 | 79 | 1009.0 |
| 20260506235711 | 68 | 196 | 1.0 | 4.0 | 0.00 | 0.13 | 0.13 | 78 | 1009.1 |
| 20260506235634 | 68 | 196 | 2.0 | 4.0 | 0.00 | 0.13 | 0.13 | 78 | 1009.1 |
| 20260506235513 | 68 | 173 | 1.0 | 4.0 | 0.00 | 0.13 | 0.13 | 78 | 1009.1 |
| 20260506235426 | 68 | 226 | 1.0 | 4.0 | 0.00 | 0.13 | 0.13 | 78 | 1009.1 |
| 20260506235326 | 68 | 163 | 1.0 | 4.0 | 0.00 | 0.13 | 0.13 | 78 | 1009.2 |
| 20260506235216 | 68 | 229 | 1.0 | 6.0 | 0.00 | 0.13 | 0.13 | 78 | 1009.2 |
| 20260506235119 | 68 | 221 | 1.0 | 6.0 | 0.00 | 0.13 | 0.13 | 78 | 1009.2 |
| 20260506235041 | 68 | 258 | 1.0 | 6.0 | 0.00 | 0.13 | 0.13 | 78 | 1009.2 |
| 20260506234915 | 68 | 258 | 1.0 | 6.0 | 0.00 | 0.13 | 0.13 | 78 | 1009.2 |
| 20260506234843 | 68 | 201 | 1.0 | 6.0 | 0.00 | 0.13 | 0.13 | 78 | 1009.2 |
| 20260506234723 | 68 | 173 | 1.0 | 6.0 | 0.00 | 0.13 | 0.13 | 78 | 1009.3 |
| 20260506234655 | 68 | 218 | 2.0 | 6.0 | 0.00 | 0.13 | 0.13 | 78 | 1009.3 |
| 20260506234610 | 68 | 233 | 2.0 | 6.0 | 0.00 | 0.13 | 0.13 | 78 | 1009.2 |
| 20260506234438 | 68 | 236 | 2.0 | 6.0 | 0.00 | 0.13 | 0.13 | 78 | 1009.2 |
| 20260506234346 | 68 | 194 | 1.0 | 4.0 | 0.00 | 0.13 | 0.13 | 78 | 1009.2 |
| 20260506234222 | 68 | 171 | 1.0 | 4.0 | 0.00 | 0.13 | 0.13 | 78 | 1009.3 |
| 20260506234127 | 68 | 171 | 0.0 | 4.0 | 0.00 | 0.13 | 0.13 | 78 | 1009.3 |
| 20260506234037 | 68 | 171 | 1.0 | 4.0 | 0.00 | 0.13 | 0.13 | 78 | 1009.3 |
| 20260506233938 | 68 | 171 | 1.0 | 4.0 | 0.00 | 0.13 | 0.13 | 78 | 1009.3 |
| 20260506233833 | 68 | 217 | 1.0 | 4.0 | 0.00 | 0.13 | 0.13 | 77 | 1009.3 |
| 20260506233736 | 68 | 217 | 2.0 | 4.0 | 0.00 | 0.13 | 0.13 | 77 | 1009.2 |
| 20260506233630 | 68 | 170 | 1.0 | 4.0 | 0.00 | 0.13 | 0.13 | 77 | 1009.2 |
| 20260506233530 | 68 | 231 | 1.0 | 7.0 | 0.00 | 0.13 | 0.13 | 77 | 1009.2 |
| 20260506233421 | 68 | 247 | 2.0 | 7.0 | 0.00 | 0.13 | 0.13 | 77 | 1009.2 |
| 20260506233344 | 68 | 206 | 1.0 | 7.0 | 0.00 | 0.13 | 0.13 | 77 | 1009.2 |
| 20260506233232 | 68 | 178 | 1.0 | 7.0 | 0.00 | 0.13 | 0.13 | 77 | 1009.2 |
| 20260506233137 | 68 | 179 | 2.0 | 7.0 | 0.00 | 0.13 | 0.13 | 77 | 1009.2 |
| 20260506232935 | 68 | 193 | 2.0 | 7.0 | 0.00 | 0.13 | 0.13 | 77 | 1009.2 |
| 20260506232842 | 68 | 186 | 3.0 | 7.0 | 0.00 | 0.13 | 0.13 | 77 | 1009.3 |
| 20260506232734 | 68 | 175 | 2.0 | 7.0 | 0.00 | 0.13 | 0.13 | 77 | 1009.2 |
| 20260506232624 | 69 | 200 | 2.0 | 10.0 | 0.00 | 0.13 | 0.13 | 76 | 1009.2 |
| 20260506232516 | 69 | 197 | 3.0 | 10.0 | 0.00 | 0.13 | 0.13 | 77 | 1009.2 |
| 20260506232433 | 69 | 192 | 3.0 | 10.0 | 0.00 | 0.13 | 0.13 | 77 | 1009.2 |
| 20260506232328 | 69 | 219 | 2.0 | 10.0 | 0.00 | 0.13 | 0.13 | 76 | 1009.1 |
| 20260506232244 | 69 | 245 | 2.0 | 10.0 | 0.00 | 0.13 | 0.13 | 76 | 1009.1 |
| 20260506232143 | 69 | 259 | 3.0 | 10.0 | 0.00 | 0.13 | 0.13 | 76 | 1009.1 |
| 20260506232019 | 69 | 183 | 2.0 | 10.0 | 0.00 | 0.13 | 0.13 | 76 | 1009.1 |
| 20260506231932 | 69 | 210 | 3.0 | 10.0 | 0.00 | 0.13 | 0.13 | 76 | 1009.1 |
| 20260506231831 | 69 | 197 | 4.0 | 10.0 | 0.00 | 0.13 | 0.13 | 76 | 1009.1 |
| 20260506231739 | 69 | 254 | 3.0 | 7.0 | 0.00 | 0.13 | 0.13 | 76 | 1009.0 |
| 20260506231643 | 69 | 232 | 3.0 | 7.0 | 0.00 | 0.13 | 0.13 | 76 | 1009.0 |
| 20260506231636 | 69 | 211 | 3.0 | 9.0 | 0.00 | 0.13 | 0.13 | 76 | 1009.0 |
| 20260506231432 | 69 | 233 | 2.0 | 9.0 | 0.00 | 0.13 | 0.13 | 76 | 1009.0 |
| 20260506231316 | 69 | 223 | 2.0 | 9.0 | 0.00 | 0.13 | 0.13 | 76 | 1009.0 |
| 20260506231223 | 69 | 239 | 3.0 | 9.0 | 0.00 | 0.13 | 0.13 | 76 | 1009.0 |
| 20260506231122 | 69 | 257 | 3.0 | 9.0 | 0.00 | 0.13 | 0.13 | 76 | 1009.0 |
| 20260506231041 | 69 | 202 | 2.0 | 9.0 | 0.00 | 0.13 | 0.13 | 76 | 1009.0 |
| 20260506230935 | 69 | 242 | 3.0 | 9.0 | 0.00 | 0.13 | 0.13 | 76 | 1009.0 |
| 20260506230819 | 69 | 215 | 3.0 | 9.0 | 0.00 | 0.13 | 0.13 | 76 | 1009.0 |
| 20260506230737 | 69 | 198 | 2.0 | 9.0 | 0.00 | 0.13 | 0.13 | 76 | 1009.0 |
| 20260506230617 | 69 | 189 | 2.0 | 7.0 | 0.00 | 0.13 | 0.13 | 76 | 1009.0 |
| 20260506230535 | 69 | 204 | 2.0 | 7.0 | 0.00 | 0.13 | 0.13 | 76 | 1009.0 |
| 20260506230424 | 69 | 211 | 2.0 | 7.0 | 0.00 | 0.13 | 0.13 | 76 | 1009.0 |
| 20260506230330 | 69 | 101 | 3.0 | 11.0 | 0.00 | 0.13 | 0.13 | 76 | 1009.0 |
| 20260506230226 | 69 | 194 | 2.0 | 11.0 | 0.00 | 0.13 | 0.13 | 76 | 1009.0 |
| 20260506230211 | 69 | 226 | 2.0 | 11.0 | 0.00 | 0.13 | 0.13 | 76 | 1009.0 |
| 20260506230050 | 69 | 247 | 2.0 | 10.0 | 0.00 | 0.13 | 0.13 | 76 | 1009.0 |
| 20260506225935 | 69 | 234 | 2.0 | 10.0 | 0.00 | 0.13 | 0.13 | 75 | 1009.0 |
| 20260506225825 | 69 | 205 | 3.0 | 15.0 | 0.00 | 0.13 | 0.13 | 75 | 1009.0 |
| 20260506225742 | 69 | 257 | 3.0 | 15.0 | 0.00 | 0.13 | 0.13 | 75 | 1009.0 |
| 20260506225626 | 69 | 186 | 3.0 | 15.0 | 0.00 | 0.13 | 0.13 | 75 | 1009.0 |
| 20260506225520 | 69 | 75 | 3.0 | 15.0 | 0.00 | 0.13 | 0.13 | 75 | 1009.1 |
| 20260506225432 | 69 | 221 | 4.0 | 15.0 | 0.00 | 0.13 | 0.13 | 75 | 1009.1 |
| 20260506225337 | 69 | 176 | 5.0 | 15.0 | 0.00 | 0.13 | 0.13 | 75 | 1009.1 |
| 20260506225230 | 69 | 202 | 6.0 | 15.0 | 0.00 | 0.13 | 0.13 | 75 | 1009.0 |
| 20260506225142 | 69 | 192 | 6.0 | 15.0 | 0.00 | 0.13 | 0.13 | 75 | 1009.1 |
| 20260506225025 | 69 | 209 | 4.0 | 15.0 | 0.00 | 0.13 | 0.13 | 75 | 1009.1 |
| 20260506224924 | 69 | 212 | 3.0 | 7.0 | 0.00 | 0.13 | 0.13 | 75 | 1009.1 |
| 20260506224830 | 69 | 114 | 3.0 | 7.0 | 0.00 | 0.13 | 0.13 | 76 | 1009.1 |
| 20260506224736 | 69 | 207 | 4.0 | 7.0 | 0.00 | 0.13 | 0.13 | 75 | 1009.1 |
| 20260506224646 | 69 | 180 | 3.0 | 6.0 | 0.00 | 0.13 | 0.13 | 75 | 1009.1 |
| 20260506224610 | 69 | 196 | 2.0 | 9.0 | 0.00 | 0.13 | 0.13 | 76 | 1009.1 |
| 20260506224441 | 69 | 246 | 2.0 | 9.0 | 0.00 | 0.13 | 0.13 | 76 | 1009.1 |
| 20260506224334 | 69 | 223 | 2.0 | 9.0 | 0.00 | 0.13 | 0.13 | 76 | 1009.1 |
| 20260506224254 | 69 | 223 | 2.0 | 9.0 | 0.00 | 0.13 | 0.13 | 75 | 1009.1 |
| 20260506224122 | 69 | 148 | 2.0 | 9.0 | 0.00 | 0.13 | 0.13 | 76 | 1009.1 |
| 20260506224016 | 69 | 187 | 2.0 | 9.0 | 0.00 | 0.13 | 0.13 | 75 | 1009.1 |
| 20260506223931 | 69 | 163 | 2.0 | 9.0 | 0.00 | 0.13 | 0.13 | 75 | 1009.0 |
| 20260506223824 | 69 | 155 | 4.0 | 9.0 | 0.00 | 0.13 | 0.13 | 75 | 1009.1 |
| 20260506223716 | 69 | 176 | 3.0 | 9.0 | 0.00 | 0.13 | 0.13 | 75 | 1009.0 |
| 20260506223631 | 69 | 217 | 2.0 | 6.0 | 0.00 | 0.13 | 0.13 | 75 | 1009.0 |
| 20260506223536 | 69 | 171 | 3.0 | 6.0 | 0.00 | 0.13 | 0.13 | 75 | 1009.0 |
| 20260506223417 | 69 | 177 | 2.0 | 6.0 | 0.00 | 0.13 | 0.13 | 75 | 1008.9 |
| 20260506223321 | 70 | 263 | 2.0 | 6.0 | 0.00 | 0.13 | 0.13 | 75 | 1008.9 |
| 20260506223230 | 69 | 192 | 2.0 | 8.0 | 0.00 | 0.13 | 0.13 | 75 | 1009.0 |
| 20260506223126 | 69 | 186 | 3.0 | 10.0 | 0.00 | 0.13 | 0.13 | 75 | 1009.0 |
| 20260506222954 | 70 | 208 | 2.0 | 10.0 | 0.00 | 0.13 | 0.13 | 75 | 1009.1 |
| 20260506222821 | 70 | 206 | 2.0 | 10.0 | 0.00 | 0.13 | 0.13 | 75 | 1009.1 |
| 20260506222723 | 70 | 193 | 3.0 | 10.0 | 0.00 | 0.13 | 0.13 | 75 | 1009.0 |
| 20260506222645 | 70 | 181 | 3.0 | 10.0 | 0.00 | 0.13 | 0.13 | 75 | 1009.0 |
| 20260506222518 | 70 | 207 | 4.0 | 10.0 | 0.00 | 0.13 | 0.13 | 75 | 1009.0 |
| 20260506222443 | 70 | 192 | 5.0 | 10.0 | 0.00 | 0.13 | 0.13 | 75 | 1009.1 |
| 20260506222340 | 70 | 171 | 5.0 | 10.0 | 0.00 | 0.13 | 0.13 | 75 | 1009.0 |
| 20260506222226 | 70 | 256 | 4.0 | 8.0 | 0.00 | 0.13 | 0.13 | 75 | 1009.1 |
| 20260506222136 | 70 | 211 | 2.0 | 7.0 | 0.00 | 0.13 | 0.13 | 75 | 1009.1 |
| 20260506222023 | 70 | 158 | 2.0 | 7.0 | 0.00 | 0.13 | 0.13 | 76 | 1009.1 |
| 20260506221924 | 69 | 192 | 2.0 | 7.0 | 0.00 | 0.13 | 0.13 | 76 | 1009.2 |
| 20260506221822 | 69 | 178 | 2.0 | 7.0 | 0.00 | 0.13 | 0.13 | 75 | 1009.2 |
| 20260506221736 | 69 | 163 | 2.0 | 7.0 | 0.00 | 0.13 | 0.13 | 75 | 1009.2 |
| 20260506221647 | 69 | 207 | 3.0 | 7.0 | 0.00 | 0.13 | 0.13 | 75 | 1009.2 |
| 20260506221425 | 69 | 153 | 4.0 | 7.0 | 0.00 | 0.13 | 0.13 | 75 | 1009.2 |
| 20260506221339 | 69 | 211 | 3.0 | 7.0 | 0.00 | 0.13 | 0.13 | 75 | 1009.2 |
| 20260506221237 | 69 | 121 | 3.0 | 7.0 | 0.00 | 0.13 | 0.13 | 75 | 1009.3 |
| 20260506221139 | 69 | 229 | 4.0 | 9.0 | 0.00 | 0.13 | 0.13 | 75 | 1009.3 |
| 20260506221047 | 69 | 188 | 4.0 | 9.0 | 0.00 | 0.13 | 0.13 | 75 | 1009.3 |
| 20260506220955 | 69 | 198 | 3.0 | 10.0 | 0.00 | 0.13 | 0.13 | 75 | 1009.2 |
| 20260506220824 | 69 | 196 | 3.0 | 10.0 | 0.00 | 0.13 | 0.13 | 75 | 1009.2 |
| 20260506220728 | 69 | 229 | 3.0 | 10.0 | 0.00 | 0.13 | 0.13 | 75 | 1009.2 |
| 20260506220620 | 69 | 273 | 3.0 | 10.0 | 0.00 | 0.13 | 0.13 | 75 | 1009.2 |
| 20260506220516 | 69 | 146 | 3.0 | 10.0 | 0.00 | 0.13 | 0.13 | 74 | 1009.2 |
| 20260506220435 | 69 | 149 | 3.0 | 10.0 | 0.00 | 0.13 | 0.13 | 75 | 1009.2 |
| 20260506220337 | 70 | 167 | 3.0 | 10.0 | 0.00 | 0.13 | 0.13 | 74 | 1009.3 |
| 20260506220238 | 70 | 237 | 4.0 | 10.0 | 0.00 | 0.13 | 0.13 | 74 | 1009.3 |
| 20260506220136 | 70 | 287 | 5.0 | 10.0 | 0.00 | 0.13 | 0.13 | 74 | 1009.2 |
| 20260506215943 | 70 | 202 | 5.0 | 10.0 | 0.00 | 0.13 | 0.13 | 74 | 1009.3 |
| 20260506215838 | 70 | 225 | 5.0 | 10.0 | 0.00 | 0.13 | 0.13 | 74 | 1009.3 |
| 20260506215724 | 70 | 172 | 3.0 | 8.0 | 0.00 | 0.13 | 0.13 | 74 | 1009.3 |
| 20260506215619 | 70 | 194 | 2.0 | 7.0 | 0.00 | 0.13 | 0.13 | 74 | 1009.3 |
| 20260506215529 | 70 | 211 | 3.0 | 10.0 | 0.00 | 0.13 | 0.13 | 75 | 1009.3 |
| 20260506215431 | 70 | 174 | 3.0 | 10.0 | 0.00 | 0.13 | 0.13 | 75 | 1009.4 |
| 20260506215329 | 70 | 250 | 3.0 | 10.0 | 0.00 | 0.13 | 0.13 | 75 | 1009.3 |
| 20260506215222 | 70 | 208 | 3.0 | 10.0 | 0.00 | 0.13 | 0.13 | 75 | 1009.3 |
| 20260506215125 | 70 | 200 | 3.0 | 10.0 | 0.00 | 0.13 | 0.13 | 75 | 1009.4 |
| 20260506215020 | 70 | 240 | 2.0 | 10.0 | 0.00 | 0.13 | 0.13 | 74 | 1009.3 |
| 20260506214937 | 70 | 184 | 3.0 | 10.0 | 0.00 | 0.13 | 0.13 | 74 | 1009.4 |
| 20260506214819 | 70 | 203 | 4.0 | 10.0 | 0.00 | 0.13 | 0.13 | 74 | 1009.3 |
| 20260506214746 | 70 | 231 | 5.0 | 10.0 | 0.00 | 0.13 | 0.13 | 74 | 1009.3 |
| 20260506214622 | 70 | 191 | 6.0 | 10.0 | 0.00 | 0.13 | 0.13 | 75 | 1009.4 |
| 20260506214603 | 70 | 118 | 4.0 | 9.0 | 0.00 | 0.13 | 0.13 | 75 | 1009.3 |
| 20260506214425 | 69 | 206 | 2.0 | 9.0 | 0.00 | 0.13 | 0.13 | 75 | 1009.3 |
| 20260506214344 | 69 | 239 | 3.0 | 9.0 | 0.00 | 0.13 | 0.13 | 75 | 1009.3 |
| 20260506214234 | 69 | 215 | 4.0 | 9.0 | 0.00 | 0.13 | 0.13 | 75 | 1009.3 |
| 20260506214124 | 69 | 225 | 4.0 | 9.0 | 0.00 | 0.13 | 0.13 | 74 | 1009.3 |
| 20260506214019 | 69 | 164 | 4.0 | 10.0 | 0.00 | 0.13 | 0.13 | 75 | 1009.3 |
| 20260506213940 | 69 | 179 | 3.0 | 7.0 | 0.00 | 0.13 | 0.13 | 75 | 1009.3 |
| 20260506213835 | 69 | 142 | 3.0 | 9.0 | 0.00 | 0.13 | 0.13 | 75 | 1009.3 |
| 20260506213746 | 69 | 175 | 3.0 | 9.0 | 0.00 | 0.13 | 0.13 | 75 | 1009.3 |
| 20260506213618 | 69 | 163 | 3.0 | 9.0 | 0.00 | 0.13 | 0.13 | 75 | 1009.2 |
| 20260506213523 | 69 | 186 | 1.0 | 9.0 | 0.00 | 0.13 | 0.13 | 75 | 1009.2 |
| 20260506213418 | 69 | 153 | 2.0 | 9.0 | 0.00 | 0.13 | 0.13 | 75 | 1009.2 |
| 20260506213341 | 69 | 169 | 2.0 | 9.0 | 0.00 | 0.13 | 0.13 | 75 | 1009.3 |
| 20260506213244 | 69 | 145 | 3.0 | 10.0 | 0.00 | 0.13 | 0.13 | 75 | 1009.3 |
| 20260506213156 | 69 | 186 | 4.0 | 10.0 | 0.00 | 0.13 | 0.13 | 74 | 1009.3 |
| 20260506213049 | 69 | 265 | 3.0 | 10.0 | 0.00 | 0.13 | 0.13 | 75 | 1009.3 |
| 20260506212931 | 69 | 126 | 2.0 | 10.0 | 0.00 | 0.13 | 0.13 | 76 | 1009.3 |
| 20260506212833 | 69 | 219 | 2.0 | 10.0 | 0.00 | 0.13 | 0.13 | 75 | 1009.3 |
| 20260506212723 | 69 | 259 | 1.0 | 10.0 | 0.00 | 0.13 | 0.13 | 75 | 1009.3 |
| 20260506212642 | 69 | 269 | 2.0 | 10.0 | 0.00 | 0.13 | 0.13 | 75 | 1009.2 |
| 20260506212517 | 69 | 254 | 4.0 | 10.0 | 0.00 | 0.13 | 0.13 | 75 | 1009.2 |
| 20260506212438 | 69 | 257 | 4.0 | 10.0 | 0.00 | 0.13 | 0.13 | 74 | 1009.2 |
| 20260506212312 | 69 | 202 | 5.0 | 13.0 | 0.00 | 0.13 | 0.13 | 74 | 1009.3 |
| 20260506212309 | 69 | 161 | 5.0 | 13.0 | 0.00 | 0.13 | 0.13 | 74 | 1009.2 |
| 20260506212128 | 69 | 202 | 4.0 | 13.0 | 0.00 | 0.13 | 0.13 | 74 | 1009.3 |
| 20260506212035 | 69 | 183 | 4.0 | 13.0 | 0.00 | 0.13 | 0.13 | 74 | 1009.3 |
| 20260506211929 | 69 | 136 | 3.0 | 13.0 | 0.00 | 0.13 | 0.13 | 75 | 1009.4 |
| 20260506211849 | 69 | 184 | 3.0 | 13.0 | 0.00 | 0.13 | 0.13 | 75 | 1009.3 |
| 20260506211744 | 69 | 161 | 4.0 | 13.0 | 0.00 | 0.13 | 0.13 | 74 | 1009.3 |
| 20260506211652 | 69 | 188 | 6.0 | 13.0 | 0.00 | 0.13 | 0.13 | 74 | 1009.3 |
| 20260506211551 | 69 | 157 | 7.0 | 13.0 | 0.00 | 0.13 | 0.13 | 74 | 1009.3 |
| 20260506211438 | 69 | 236 | 6.0 | 14.0 | 0.00 | 0.13 | 0.13 | 74 | 1009.2 |
| 20260506211333 | 69 | 142 | 7.0 | 14.0 | 0.00 | 0.13 | 0.13 | 74 | 1009.1 |
| 20260506211215 | 69 | 257 | 6.0 | 14.0 | 0.00 | 0.13 | 0.13 | 74 | 1009.2 |
| 20260506211115 | 69 | 146 | 4.0 | 14.0 | 0.00 | 0.13 | 0.13 | 76 | 1009.2 |
| 20260506211043 | 69 | 246 | 3.0 | 14.0 | 0.00 | 0.13 | 0.13 | 75 | 1009.2 |
| 20260506210921 | 69 | 222 | 2.0 | 14.0 | 0.00 | 0.13 | 0.13 | 76 | 1009.2 |
| 20260506210822 | 69 | 121 | 4.0 | 14.0 | 0.00 | 0.13 | 0.13 | 75 | 1009.2 |
| 20260506210708 | 69 | 173 | 6.0 | 14.0 | 0.00 | 0.13 | 0.13 | 74 | 1009.1 |
| 20260506210539 | 69 | 272 | 3.0 | 9.0 | 0.00 | 0.13 | 0.13 | 75 | 1009.2 |
| 20260506210501 | 69 | 192 | 4.0 | 9.0 | 0.00 | 0.13 | 0.13 | 75 | 1009.2 |
| 20260506210341 | 69 | 225 | 5.0 | 12.0 | 0.00 | 0.13 | 0.13 | 75 | 1009.3 |
| 20260506210245 | 69 | 194 | 5.0 | 13.0 | 0.00 | 0.13 | 0.13 | 75 | 1009.2 |
| 20260506210147 | 69 | 192 | 5.0 | 13.0 | 0.00 | 0.13 | 0.13 | 74 | 1009.2 |
| 20260506210050 | 69 | 221 | 5.0 | 13.0 | 0.00 | 0.13 | 0.13 | 75 | 1009.2 |
| 20260506205942 | 69 | 180 | 4.0 | 13.0 | 0.00 | 0.13 | 0.13 | 75 | 1009.2 |
| 20260506205822 | 69 | 161 | 4.0 | 13.0 | 0.00 | 0.13 | 0.13 | 76 | 1009.2 |
| 20260506205736 | 69 | 202 | 5.0 | 13.0 | 0.00 | 0.13 | 0.13 | 76 | 1009.2 |
| 20260506205628 | 69 | 180 | 5.0 | 13.0 | 0.00 | 0.13 | 0.13 | 75 | 1009.2 |
| 20260506205519 | 69 | 216 | 6.0 | 13.0 | 0.00 | 0.13 | 0.13 | 76 | 1009.1 |
| 20260506205440 | 69 | 234 | 4.0 | 13.0 | 0.00 | 0.13 | 0.13 | 75 | 1009.0 |
| 20260506205340 | 69 | 202 | 1.0 | 11.0 | 0.00 | 0.13 | 0.13 | 76 | 1009.0 |
| 20260506205241 | 69 | 180 | 1.0 | 10.0 | 0.00 | 0.13 | 0.13 | 76 | 1008.9 |
| 20260506205136 | 69 | 188 | 4.0 | 10.0 | 0.00 | 0.13 | 0.13 | 75 | 1009.1 |
| 20260506205038 | 69 | 196 | 4.0 | 10.0 | 0.00 | 0.13 | 0.13 | 75 | 1009.1 |
| 20260506204936 | 69 | 169 | 5.0 | 10.0 | 0.00 | 0.13 | 0.13 | 75 | 1009.1 |
| 20260506204834 | 69 | 154 | 5.0 | 10.0 | 0.00 | 0.13 | 0.13 | 76 | 1009.1 |
| 20260506204728 | 69 | 175 | 3.0 | 9.0 | 0.00 | 0.13 | 0.13 | 77 | 1009.2 |
| 20260506204632 | 69 | 205 | 4.0 | 12.0 | 0.00 | 0.13 | 0.13 | 76 | 1009.1 |
| 20260506204422 | 69 | 207 | 4.0 | 12.0 | 0.00 | 0.13 | 0.13 | 77 | 1009.2 |
| 20260506204328 | 69 | 246 | 3.0 | 12.0 | 0.00 | 0.13 | 0.13 | 76 | 1009.1 |
| 20260506204224 | 68 | 178 | 2.0 | 12.0 | 0.00 | 0.13 | 0.13 | 76 | 1009.0 |
| 20260506204143 | 68 | 151 | 3.0 | 12.0 | 0.00 | 0.13 | 0.13 | 77 | 1009.0 |
| 20260506204043 | 68 | 329 | 3.0 | 12.0 | 0.00 | 0.13 | 0.13 | 77 | 1009.0 |
| 20260506203923 | 68 | 204 | 4.0 | 12.0 | 0.00 | 0.13 | 0.13 | 76 | 1009.1 |
| 20260506203825 | 68 | 171 | 3.0 | 12.0 | 0.00 | 0.13 | 0.13 | 77 | 1009.1 |
| 20260506203751 | 68 | 254 | 4.0 | 11.0 | 0.00 | 0.13 | 0.13 | 78 | 1009.1 |
| 20260506203636 | 68 | 165 | 4.0 | 10.0 | 0.00 | 0.13 | 0.13 | 77 | 1009.1 |
| 20260506203526 | 68 | 155 | 3.0 | 10.0 | 0.00 | 0.13 | 0.13 | 77 | 1009.2 |
| 20260506203448 | 68 | 194 | 4.0 | 10.0 | 0.00 | 0.13 | 0.13 | 77 | 1009.2 |
| 20260506203336 | 68 | 213 | 3.0 | 10.0 | 0.00 | 0.13 | 0.13 | 77 | 1009.2 |
| 20260506203244 | 68 | 210 | 3.0 | 8.0 | 0.00 | 0.13 | 0.13 | 78 | 1009.3 |
| 20260506203128 | 68 | 207 | 4.0 | 8.0 | 0.00 | 0.13 | 0.13 | 77 | 1009.2 |
| 20260506202932 | 68 | 186 | 2.0 | 10.0 | 0.00 | 0.13 | 0.13 | 78 | 1009.2 |
| 20260506202843 | 68 | 206 | 1.0 | 10.0 | 0.00 | 0.13 | 0.13 | 79 | 1009.2 |
| 20260506202738 | 68 | 211 | 1.0 | 10.0 | 0.00 | 0.13 | 0.13 | 78 | 1009.1 |
| 20260506202617 | 68 | 209 | 1.0 | 10.0 | 0.00 | 0.13 | 0.13 | 78 | 1009.0 |
| 20260506202519 | 68 | 156 | 1.0 | 10.0 | 0.00 | 0.13 | 0.13 | 77 | 1008.9 |
| 20260506202442 | 68 | 182 | 3.0 | 10.0 | 0.00 | 0.13 | 0.13 | 78 | 1009.0 |
| 20260506202339 | 68 | 121 | 4.0 | 10.0 | 0.00 | 0.13 | 0.13 | 78 | 1008.9 |
| 20260506202241 | 68 | 180 | 4.0 | 10.0 | 0.00 | 0.13 | 0.13 | 77 | 1009.0 |
| 20260506202116 | 68 | 44 | 4.0 | 10.0 | 0.00 | 0.13 | 0.13 | 78 | 1009.1 |
| 20260506202113 | 68 | 219 | 3.0 | 9.0 | 0.00 | 0.13 | 0.13 | 78 | 1009.1 |
| 20260506201936 | 67 | 198 | 3.0 | 9.0 | 0.00 | 0.13 | 0.13 | 78 | 1009.2 |
| 20260506201817 | 67 | 192 | 3.0 | 9.0 | 0.00 | 0.13 | 0.13 | 78 | 1009.2 |
| 20260506201731 | 67 | 272 | 3.0 | 11.0 | 0.00 | 0.13 | 0.13 | 77 | 1009.2 |
| 20260506201653 | 67 | 148 | 3.0 | 11.0 | 0.00 | 0.13 | 0.13 | 78 | 1009.2 |
| 20260506201432 | 67 | 238 | 4.0 | 11.0 | 0.00 | 0.13 | 0.13 | 78 | 1009.2 |
| 20260506201401 | 67 | 235 | 4.0 | 11.0 | 0.00 | 0.13 | 0.13 | 78 | 1009.3 |
| 20260506201232 | 67 | 163 | 4.0 | 11.0 | 0.00 | 0.13 | 0.13 | 78 | 1009.2 |
| 20260506201143 | 67 | 200 | 4.0 | 11.0 | 0.00 | 0.13 | 0.13 | 78 | 1009.3 |
| 20260506201032 | 67 | 198 | 6.0 | 11.0 | 0.00 | 0.13 | 0.13 | 78 | 1009.3 |
| 20260506200928 | 67 | 223 | 4.0 | 11.0 | 0.00 | 0.13 | 0.13 | 78 | 1009.3 |
| 20260506200835 | 67 | 254 | 2.0 | 9.0 | 0.00 | 0.13 | 0.13 | 78 | 1009.2 |
| 20260506200718 | 67 | 213 | 3.0 | 9.0 | 0.00 | 0.13 | 0.13 | 78 | 1009.2 |
| 20260506200639 | 67 | 238 | 3.0 | 9.0 | 0.00 | 0.13 | 0.13 | 78 | 1009.1 |
| 20260506200537 | 67 | 146 | 4.0 | 9.0 | 0.00 | 0.13 | 0.13 | 78 | 1009.2 |
| 20260506200439 | 67 | 271 | 4.0 | 10.0 | 0.00 | 0.13 | 0.13 | 78 | 1009.2 |
| 20260506200322 | 67 | 171 | 4.0 | 10.0 | 0.00 | 0.13 | 0.13 | 78 | 1009.1 |
| 20260506200253 | 67 | 184 | 4.0 | 10.0 | 0.00 | 0.13 | 0.13 | 78 | 1009.1 |
| 20260506200211 | 67 | 241 | 4.0 | 10.0 | 0.00 | 0.13 | 0.13 | 78 | 1009.1 |
| 20260506200107 | 67 | 163 | 3.0 | 10.0 | 0.00 | 0.13 | 0.13 | 78 | 1009.1 |
| 20260506195939 | 67 | 105 | 3.0 | 10.0 | 0.00 | 0.13 | 0.13 | 78 | 1009.2 |
| 20260506195828 | 67 | 196 | 3.0 | 10.0 | 0.00 | 0.13 | 0.13 | 78 | 1009.2 |
| 20260506195735 | 67 | 169 | 5.0 | 10.0 | 0.00 | 0.13 | 0.13 | 78 | 1009.1 |
| 20260506195618 | 67 | 309 | 5.0 | 10.0 | 0.00 | 0.13 | 0.13 | 78 | 1009.1 |
| 20260506195517 | 67 | 236 | 3.0 | 9.0 | 0.00 | 0.13 | 0.13 | 78 | 1009.1 |
| 20260506195428 | 67 | 196 | 2.0 | 9.0 | 0.00 | 0.13 | 0.13 | 78 | 1009.1 |
| 20260506195330 | 67 | 196 | 3.0 | 9.0 | 0.00 | 0.13 | 0.13 | 78 | 1009.2 |
| 20260506195216 | 67 | 178 | 3.0 | 9.0 | 0.00 | 0.13 | 0.13 | 78 | 1009.3 |
| 20260506195145 | 67 | 152 | 3.0 | 9.0 | 0.00 | 0.13 | 0.13 | 78 | 1009.4 |
| 20260506195014 | 67 | 259 | 4.0 | 11.0 | 0.00 | 0.13 | 0.13 | 78 | 1009.5 |
| 20260506194917 | 67 | 142 | 4.0 | 11.0 | 0.00 | 0.13 | 0.13 | 78 | 1009.2 |
| 20260506194830 | 67 | 267 | 4.0 | 11.0 | 0.00 | 0.13 | 0.13 | 78 | 1009.3 |
| 20260506194742 | 67 | 198 | 3.0 | 11.0 | 0.00 | 0.13 | 0.13 | 78 | 1009.3 |
| 20260506194643 | 67 | 125 | 3.0 | 11.0 | 0.00 | 0.13 | 0.13 | 79 | 1009.3 |
| 20260506194614 | 67 | 179 | 4.0 | 14.0 | 0.00 | 0.13 | 0.13 | 78 | 1009.3 |
| 20260506194422 | 67 | 174 | 5.0 | 14.0 | 0.00 | 0.13 | 0.13 | 78 | 1009.4 |
| 20260506194326 | 67 | 194 | 5.0 | 14.0 | 0.00 | 0.13 | 0.13 | 77 | 1009.5 |
| 20260506194221 | 67 | 228 | 6.0 | 14.0 | 0.00 | 0.13 | 0.13 | 78 | 1009.6 |
| 20260506194120 | 67 | 206 | 6.0 | 14.0 | 0.00 | 0.13 | 0.13 | 77 | 1009.5 |
| 20260506194047 | 67 | 223 | 5.0 | 14.0 | 0.00 | 0.13 | 0.13 | 77 | 1009.5 |
| 20260506193944 | 67 | 169 | 4.0 | 14.0 | 0.00 | 0.13 | 0.13 | 79 | 1009.6 |
| 20260506193835 | 67 | 182 | 5.0 | 14.0 | 0.00 | 0.13 | 0.13 | 78 | 1009.6 |
| 20260506193717 | 67 | 181 | 3.0 | 14.0 | 0.00 | 0.13 | 0.13 | 78 | 1009.6 |
| 20260506193625 | 67 | 246 | 3.0 | 12.0 | 0.00 | 0.13 | 0.13 | 78 | 1009.6 |
| 20260506193507 | 67 | 227 | 4.0 | 12.0 | 0.00 | 0.13 | 0.13 | 78 | 1009.6 |
| 20260506193347 | 67 | 128 | 4.0 | 18.0 | 0.00 | 0.13 | 0.13 | 78 | 1009.5 |
| 20260506193218 | 67 | 246 | 4.0 | 18.0 | 0.00 | 0.13 | 0.13 | 78 | 1009.4 |
| 20260506193203 | 67 | 218 | 4.0 | 18.0 | 0.00 | 0.13 | 0.13 | 78 | 1009.5 |
| 20260506193108 | 67 | 215 | 2.0 | 18.0 | 0.00 | 0.13 | 0.13 | 78 | 1009.6 |
| 20260506192915 | 67 | 212 | 2.0 | 18.0 | 0.00 | 0.13 | 0.13 | 78 | 1009.6 |
| 20260506192817 | 67 | 225 | 4.0 | 18.0 | 0.00 | 0.13 | 0.13 | 77 | 1009.8 |
| 20260506192733 | 67 | 178 | 6.0 | 18.0 | 0.00 | 0.13 | 0.13 | 77 | 1009.8 |
| 20260506192640 | 67 | 196 | 5.0 | 18.0 | 0.00 | 0.13 | 0.13 | 77 | 1009.9 |
| 20260506192532 | 67 | 171 | 3.0 | 14.0 | 0.00 | 0.13 | 0.13 | 78 | 1009.8 |
| 20260506192422 | 67 | 180 | 3.0 | 14.0 | 0.00 | 0.13 | 0.13 | 78 | 1010.0 |
| 20260506192310 | 67 | 194 | 4.0 | 14.0 | 0.00 | 0.13 | 0.13 | 78 | 1010.0 |
| 20260506192235 | 67 | 164 | 5.0 | 14.0 | 0.00 | 0.13 | 0.13 | 77 | 1010.0 |
| 20260506192135 | 67 | 214 | 4.0 | 14.0 | 0.00 | 0.13 | 0.13 | 77 | 1009.9 |
| 20260506192028 | 67 | 253 | 3.0 | 14.0 | 0.00 | 0.13 | 0.13 | 77 | 1009.9 |
| 20260506191936 | 67 | 188 | 6.0 | 14.0 | 0.00 | 0.13 | 0.13 | 77 | 1009.9 |
| 20260506191832 | 67 | 149 | 7.0 | 14.0 | 0.00 | 0.13 | 0.13 | 76 | 1010.0 |
| 20260506191732 | 67 | 205 | 4.0 | 14.0 | 0.00 | 0.13 | 0.13 | 77 | 1010.0 |
| 20260506191654 | 67 | 261 | 3.0 | 14.0 | 0.00 | 0.13 | 0.13 | 77 | 1009.9 |
| 20260506191614 | 67 | 304 | 4.0 | 14.0 | 0.00 | 0.13 | 0.13 | 77 | 1009.9 |
| 20260506191420 | 67 | 233 | 4.0 | 14.0 | 0.00 | 0.13 | 0.13 | 78 | 1009.9 |
| 20260506191325 | 67 | 268 | 6.0 | 14.0 | 0.00 | 0.13 | 0.13 | 77 | 1010.0 |
| 20260506191247 | 67 | 157 | 6.0 | 14.0 | 0.00 | 0.13 | 0.13 | 77 | 1010.0 |
| 20260506191138 | 67 | 227 | 6.0 | 14.0 | 0.00 | 0.13 | 0.13 | 76 | 1010.0 |
| 20260506191024 | 67 | 246 | 6.0 | 14.0 | 0.00 | 0.13 | 0.13 | 77 | 1010.0 |
| 20260506190927 | 67 | 182 | 6.0 | 14.0 | 0.00 | 0.13 | 0.13 | 77 | 1010.1 |
| 20260506190827 | 67 | 207 | 6.0 | 14.0 | 0.00 | 0.13 | 0.13 | 76 | 1010.0 |
| 20260506190740 | 67 | 200 | 5.0 | 14.0 | 0.00 | 0.13 | 0.13 | 77 | 1010.0 |
| 20260506190635 | 68 | 211 | 5.0 | 14.0 | 0.00 | 0.13 | 0.13 | 77 | 1010.1 |
| 20260506190525 | 67 | 246 | 5.0 | 14.0 | 0.00 | 0.13 | 0.13 | 77 | 1010.0 |
| 20260506190435 | 68 | 303 | 4.0 | 14.0 | 0.00 | 0.13 | 0.13 | 78 | 1009.9 |
| 20260506190341 | 67 | 238 | 3.0 | 11.0 | 0.00 | 0.13 | 0.13 | 77 | 1009.7 |
| 20260506190230 | 67 | 252 | 4.0 | 11.0 | 0.00 | 0.13 | 0.13 | 76 | 1009.7 |
| 20260506190157 | 67 | 241 | 4.0 | 11.0 | 0.00 | 0.13 | 0.13 | 78 | 1009.9 |
| 20260506190131 | 67 | 206 | 5.0 | 11.0 | 0.00 | 0.13 | 0.13 | 77 | 1009.9 |
| 20260506185938 | 67 | 227 | 6.0 | 11.0 | 0.00 | 0.13 | 0.13 | 77 | 1009.9 |
| 20260506185847 | 67 | 128 | 6.0 | 13.0 | 0.00 | 0.13 | 0.13 | 77 | 1009.8 |
| 20260506185741 | 67 | 209 | 5.0 | 13.0 | 0.00 | 0.13 | 0.13 | 76 | 1009.9 |
| 20260506185637 | 67 | 175 | 5.0 | 13.0 | 0.00 | 0.13 | 0.13 | 77 | 1009.9 |
| 20260506185515 | 67 | 144 | 6.0 | 13.0 | 0.00 | 0.13 | 0.13 | 77 | 1009.9 |
| 20260506185427 | 67 | 258 | 6.0 | 13.0 | 0.00 | 0.13 | 0.13 | 77 | 1009.8 |
| 20260506185321 | 67 | 203 | 3.0 | 13.0 | 0.00 | 0.13 | 0.13 | 78 | 1009.8 |
| 20260506185226 | 67 | 238 | 3.0 | 13.0 | 0.00 | 0.13 | 0.13 | 78 | 1009.9 |
| 20260506185141 | 67 | 260 | 6.0 | 13.0 | 0.00 | 0.13 | 0.13 | 77 | 1009.8 |
| 20260506185035 | 67 | 259 | 5.0 | 13.0 | 0.00 | 0.13 | 0.13 | 77 | 1009.8 |
| 20260506184924 | 67 | 273 | 5.0 | 10.0 | 0.00 | 0.13 | 0.13 | 78 | 1009.9 |
| 20260506184824 | 67 | 207 | 5.0 | 10.0 | 0.00 | 0.13 | 0.13 | 77 | 1009.9 |
| 20260506184732 | 67 | 207 | 5.0 | 10.0 | 0.00 | 0.13 | 0.13 | 77 | 1010.0 |
| 20260506184704 | 67 | 210 | 5.0 | 10.0 | 0.00 | 0.13 | 0.13 | 78 | 1010.1 |
| 20260506184624 | 67 | 217 | 4.0 | 10.0 | 0.00 | 0.13 | 0.13 | 78 | 1010.2 |
| 20260506184424 | 67 | 246 | 3.0 | 10.0 | 0.00 | 0.13 | 0.13 | 78 | 1010.2 |
| 20260506184335 | 67 | 192 | 2.0 | 12.0 | 0.00 | 0.13 | 0.13 | 77 | 1010.1 |
| 20260506184237 | 67 | 197 | 3.0 | 12.0 | 0.00 | 0.13 | 0.13 | 77 | 1010.1 |
| 20260506184138 | 67 | 149 | 5.0 | 12.0 | 0.00 | 0.13 | 0.13 | 78 | 1010.1 |
| 20260506184035 | 67 | 100 | 4.0 | 12.0 | 0.00 | 0.13 | 0.13 | 78 | 1010.1 |
| 20260506183930 | 67 | 229 | 4.0 | 12.0 | 0.00 | 0.13 | 0.13 | 77 | 1010.0 |
| 20260506183841 | 67 | 169 | 4.0 | 12.0 | 0.00 | 0.13 | 0.13 | 77 | 1010.1 |
| 20260506183718 | 67 | 229 | 4.0 | 12.0 | 0.00 | 0.13 | 0.13 | 78 | 1009.9 |
| 20260506183637 | 67 | 212 | 5.0 | 12.0 | 0.00 | 0.13 | 0.13 | 78 | 1009.9 |
| 20260506183520 | 67 | 171 | 4.0 | 12.0 | 0.00 | 0.13 | 0.13 | 77 | 1009.9 |
| 20260506183426 | 67 | 170 | 4.0 | 10.0 | 0.00 | 0.13 | 0.13 | 78 | 1010.0 |
| 20260506183337 | 67 | 292 | 4.0 | 12.0 | 0.00 | 0.13 | 0.13 | 78 | 1010.1 |
| 20260506183230 | 67 | 198 | 4.0 | 12.0 | 0.00 | 0.13 | 0.13 | 78 | 1010.2 |
| 20260506183209 | 67 | 257 | 4.0 | 12.0 | 0.00 | 0.13 | 0.13 | 78 | 1010.2 |
| 20260506183109 | 67 | 195 | 5.0 | 12.0 | 0.00 | 0.13 | 0.13 | 77 | 1010.3 |
| 20260506182930 | 67 | 243 | 4.0 | 12.0 | 0.00 | 0.13 | 0.13 | 77 | 1010.4 |
| 20260506182825 | 67 | 193 | 5.0 | 12.0 | 0.00 | 0.13 | 0.13 | 78 | 1010.5 |
| 20260506182728 | 67 | 254 | 5.0 | 13.0 | 0.00 | 0.13 | 0.13 | 77 | 1010.4 |
| 20260506182631 | 67 | 98 | 3.0 | 13.0 | 0.00 | 0.13 | 0.13 | 77 | 1010.5 |
| 20260506182531 | 67 | 225 | 3.0 | 13.0 | 0.00 | 0.13 | 0.13 | 77 | 1010.6 |
| 20260506182420 | 67 | 196 | 4.0 | 13.0 | 0.00 | 0.13 | 0.13 | 77 | 1010.6 |
| 20260506182340 | 67 | 309 | 3.0 | 13.0 | 0.00 | 0.13 | 0.13 | 78 | 1010.9 |
| 20260506182239 | 67 | 183 | 4.0 | 13.0 | 0.00 | 0.13 | 0.13 | 78 | 1010.7 |
| 20260506182139 | 67 | 263 | 5.0 | 13.0 | 0.00 | 0.13 | 0.13 | 78 | 1010.7 |
| 20260506182033 | 67 | 232 | 6.0 | 13.0 | 0.00 | 0.13 | 0.13 | 78 | 1010.7 |
| 20260506181927 | 67 | 228 | 4.0 | 13.0 | 0.00 | 0.13 | 0.13 | 78 | 1010.4 |
| 20260506181817 | 67 | 152 | 3.0 | 11.0 | 0.00 | 0.13 | 0.13 | 79 | 1010.5 |
| 20260506181739 | 67 | 244 | 4.0 | 11.0 | 0.00 | 0.13 | 0.13 | 79 | 1010.4 |
| 20260506181645 | 67 | 238 | 4.0 | 11.0 | 0.00 | 0.13 | 0.13 | 79 | 1010.4 |
| 20260506181553 | 67 | 140 | 5.0 | 11.0 | 0.00 | 0.13 | 0.13 | 78 | 1010.4 |
| 20260506181427 | 67 | 195 | 5.0 | 11.0 | 0.00 | 0.13 | 0.13 | 78 | 1010.3 |
| 20260506181325 | 67 | 202 | 4.0 | 10.0 | 0.00 | 0.13 | 0.13 | 78 | 1010.4 |
| 20260506181227 | 67 | 190 | 4.0 | 10.0 | 0.00 | 0.13 | 0.13 | 78 | 1010.4 |
| 20260506181137 | 67 | 174 | 4.0 | 10.0 | 0.00 | 0.13 | 0.13 | 78 | 1010.4 |
| 20260506181055 | 67 | 208 | 3.0 | 11.0 | 0.00 | 0.13 | 0.13 | 79 | 1010.4 |
| 20260506180920 | 67 | 224 | 2.0 | 11.0 | 0.00 | 0.13 | 0.13 | 81 | 1010.4 |
| 20260506180838 | 67 | 229 | 2.0 | 11.0 | 0.00 | 0.13 | 0.13 | 80 | 1010.5 |
| 20260506180737 | 66 | 182 | 3.0 | 12.0 | 0.00 | 0.13 | 0.13 | 80 | 1010.4 |
| 20260506180644 | 66 | 211 | 4.0 | 15.0 | 0.00 | 0.13 | 0.13 | 78 | 1010.4 |
| 20260506180548 | 66 | 188 | 4.0 | 15.0 | 0.00 | 0.13 | 0.13 | 78 | 1010.3 |
| 20260506180438 | 66 | 204 | 5.0 | 15.0 | 0.00 | 0.13 | 0.13 | 79 | 1010.3 |
| 20260506180320 | 66 | 212 | 4.0 | 15.0 | 0.00 | 0.13 | 0.13 | 79 | 1010.3 |
| 20260506180246 | 66 | 188 | 2.0 | 15.0 | 0.00 | 0.13 | 0.13 | 79 | 1010.5 |
| 20260506180147 | 66 | 130 | 3.0 | 15.0 | 0.00 | 0.13 | 0.13 | 80 | 1010.3 |
| 20260506175943 | 66 | 198 | 6.0 | 15.0 | 0.00 | 0.13 | 0.13 | 79 | 1010.4 |
| 20260506175836 | 66 | 232 | 6.0 | 15.0 | 0.00 | 0.13 | 0.13 | 79 | 1010.4 |
| 20260506175725 | 66 | 137 | 5.0 | 12.0 | 0.00 | 0.13 | 0.13 | 78 | 1010.4 |
| 20260506175621 | 66 | 153 | 5.0 | 13.0 | 0.00 | 0.13 | 0.13 | 79 | 1010.4 |
| 20260506175528 | 66 | 262 | 4.0 | 11.0 | 0.00 | 0.13 | 0.13 | 80 | 1010.4 |
| 20260506175424 | 66 | 170 | 5.0 | 11.0 | 0.00 | 0.13 | 0.13 | 79 | 1010.4 |
| 20260506175345 | 66 | 212 | 4.0 | 11.0 | 0.00 | 0.13 | 0.13 | 81 | 1010.5 |
| 20260506175240 | 66 | 262 | 3.0 | 13.0 | 0.00 | 0.13 | 0.13 | 80 | 1010.5 |
| 20260506175144 | 66 | 268 | 4.0 | 13.0 | 0.00 | 0.13 | 0.13 | 79 | 1010.4 |
| 20260506175047 | 66 | 205 | 6.0 | 13.0 | 0.00 | 0.13 | 0.13 | 80 | 1010.4 |
| 20260506174927 | 66 | 160 | 5.0 | 13.0 | 0.00 | 0.13 | 0.13 | 79 | 1010.4 |
| 20260506174837 | 66 | 259 | 3.0 | 13.0 | 0.00 | 0.13 | 0.13 | 81 | 1010.5 |
| 20260506174810 | 66 | 193 | 2.0 | 13.0 | 0.00 | 0.13 | 0.13 | 80 | 1010.6 |
| 20260506174654 | 66 | 161 | 5.0 | 13.0 | 0.00 | 0.13 | 0.13 | 80 | 1010.5 |
| 20260506174630 | 66 | 184 | 5.0 | 13.0 | 0.00 | 0.13 | 0.13 | 80 | 1010.5 |
| 20260506174432 | 66 | 191 | 3.0 | 11.0 | 0.00 | 0.13 | 0.13 | 80 | 1010.7 |
| 20260506174331 | 66 | 269 | 4.0 | 10.0 | 0.00 | 0.13 | 0.13 | 82 | 1010.5 |
| 20260506174243 | 66 | 271 | 4.0 | 10.0 | 0.00 | 0.13 | 0.13 | 80 | 1010.6 |
| 20260506174130 | 66 | 225 | 5.0 | 10.0 | 0.00 | 0.13 | 0.13 | 80 | 1010.6 |
| 20260506174024 | 66 | 225 | 5.0 | 10.0 | 0.00 | 0.13 | 0.13 | 81 | 1010.7 |
| 20260506173940 | 65 | 160 | 4.0 | 10.0 | 0.00 | 0.13 | 0.13 | 81 | 1010.8 |
| 20260506173842 | 65 | 252 | 4.0 | 10.0 | 0.00 | 0.13 | 0.13 | 80 | 1010.7 |
| 20260506173722 | 65 | 188 | 5.0 | 10.0 | 0.00 | 0.13 | 0.13 | 80 | 1010.6 |
| 20260506173640 | 65 | 162 | 4.0 | 10.0 | 0.00 | 0.13 | 0.13 | 80 | 1010.7 |
| 20260506173524 | 65 | 130 | 3.0 | 10.0 | 0.00 | 0.13 | 0.13 | 80 | 1010.6 |
| 20260506173423 | 65 | 171 | 3.0 | 9.0 | 0.00 | 0.13 | 0.13 | 81 | 1010.7 |
| 20260506173327 | 65 | 159 | 3.0 | 10.0 | 0.00 | 0.13 | 0.13 | 81 | 1010.9 |
| 20260506173253 | 65 | 189 | 3.0 | 13.0 | 0.00 | 0.13 | 0.13 | 81 | 1010.8 |
| 20260506173150 | 65 | 163 | 4.0 | 13.0 | 0.00 | 0.13 | 0.13 | 81 | 1010.7 |
| 20260506173110 | 65 | 188 | 5.0 | 14.0 | 0.00 | 0.13 | 0.13 | 81 | 1010.7 |
| 20260506172940 | 65 | 188 | 4.0 | 14.0 | 0.00 | 0.13 | 0.13 | 81 | 1010.8 |
| 20260506172834 | 65 | 198 | 3.0 | 14.0 | 0.00 | 0.13 | 0.13 | 82 | 1010.8 |
| 20260506172725 | 65 | 153 | 3.0 | 14.0 | 0.00 | 0.13 | 0.13 | 82 | 1010.7 |
| 20260506172642 | 65 | 213 | 3.0 | 14.0 | 0.00 | 0.13 | 0.13 | 81 | 1010.7 |
| 20260506172541 | 65 | 130 | 6.0 | 14.0 | 0.00 | 0.13 | 0.13 | 82 | 1010.7 |
| 20260506172430 | 65 | 181 | 6.0 | 14.0 | 0.00 | 0.13 | 0.13 | 81 | 1010.6 |
| 20260506172337 | 65 | 196 | 6.0 | 14.0 | 0.00 | 0.13 | 0.13 | 82 | 1010.7 |
| 20260506172222 | 65 | 178 | 5.0 | 14.0 | 0.00 | 0.13 | 0.13 | 82 | 1010.6 |
| 20260506172148 | 65 | 178 | 4.0 | 11.0 | 0.00 | 0.13 | 0.13 | 83 | 1010.7 |
| 20260506172024 | 65 | 219 | 2.0 | 11.0 | 0.00 | 0.13 | 0.13 | 82 | 1010.6 |
| 20260506171952 | 65 | 233 | 3.0 | 11.0 | 0.00 | 0.13 | 0.13 | 82 | 1010.6 |
| 20260506171845 | 65 | 188 | 4.0 | 11.0 | 0.00 | 0.13 | 0.13 | 82 | 1010.6 |
| 20260506171717 | 65 | 159 | 5.0 | 11.0 | 0.00 | 0.13 | 0.13 | 83 | 1010.6 |
| 20260506171648 | 65 | 259 | 5.0 | 11.0 | 0.00 | 0.13 | 0.13 | 82 | 1010.6 |
| 20260506171556 | 65 | 180 | 3.0 | 11.0 | 0.00 | 0.13 | 0.13 | 83 | 1010.5 |
| 20260506171435 | 65 | 217 | 3.0 | 11.0 | 0.00 | 0.13 | 0.13 | 83 | 1010.6 |
| 20260506171319 | 65 | 128 | 4.0 | 11.0 | 0.00 | 0.13 | 0.13 | 82 | 1010.5 |
| 20260506171239 | 65 | 229 | 6.0 | 11.0 | 0.00 | 0.13 | 0.13 | 83 | 1010.4 |
| 20260506171124 | 65 | 227 | 6.0 | 13.0 | 0.00 | 0.13 | 0.13 | 84 | 1010.4 |
| 20260506171044 | 65 | 234 | 3.0 | 12.0 | 0.00 | 0.13 | 0.13 | 83 | 1010.6 |
| 20260506170937 | 65 | 256 | 2.0 | 12.0 | 0.00 | 0.13 | 0.13 | 83 | 1010.5 |
| 20260506170842 | 65 | 190 | 3.0 | 12.0 | 0.00 | 0.13 | 0.13 | 83 | 1010.6 |
| 20260506170728 | 65 | 184 | 6.0 | 12.0 | 0.00 | 0.13 | 0.13 | 83 | 1010.6 |
| 20260506170624 | 65 | 192 | 6.0 | 12.0 | 0.00 | 0.13 | 0.13 | 82 | 1010.5 |
| 20260506170524 | 65 | 155 | 4.0 | 11.0 | 0.00 | 0.13 | 0.13 | 83 | 1010.6 |
| 20260506170421 | 65 | 229 | 5.0 | 11.0 | 0.00 | 0.13 | 0.13 | 83 | 1010.6 |
| 20260506170333 | 65 | 196 | 4.0 | 12.0 | 0.00 | 0.13 | 0.13 | 84 | 1010.7 |
| 20260506170227 | 65 | 217 | 2.0 | 12.0 | 0.01 | 0.13 | 0.13 | 86 | 1010.7 |
| 20260506170207 | 64 | 161 | 4.0 | 12.0 | 0.01 | 0.13 | 0.13 | 84 | 1010.7 |
| 20260506170121 | 65 | 271 | 5.0 | 12.0 | 0.01 | 0.13 | 0.13 | 84 | 1010.6 |
| 20260506165927 | 65 | 222 | 3.0 | 9.0 | 0.01 | 0.13 | 0.13 | 85 | 1010.6 |
| 20260506165839 | 64 | 198 | 2.0 | 9.0 | 0.01 | 0.13 | 0.13 | 85 | 1010.5 |
| 20260506165732 | 64 | 209 | 4.0 | 9.0 | 0.01 | 0.13 | 0.13 | 84 | 1010.4 |
| 20260506165624 | 64 | 250 | 4.0 | 9.0 | 0.01 | 0.13 | 0.13 | 85 | 1010.4 |
| 20260506165546 | 64 | 198 | 3.0 | 8.0 | 0.01 | 0.13 | 0.13 | 85 | 1010.5 |
| 20260506165437 | 64 | 157 | 3.0 | 8.0 | 0.01 | 0.13 | 0.13 | 87 | 1010.6 |
| 20260506165333 | 64 | 202 | 3.0 | 8.0 | 0.01 | 0.13 | 0.13 | 86 | 1010.6 |
| 20260506165233 | 64 | 89 | 4.0 | 8.0 | 0.01 | 0.13 | 0.13 | 87 | 1010.7 |
| 20260506165133 | 64 | 157 | 3.0 | 8.0 | 0.01 | 0.13 | 0.13 | 87 | 1010.8 |
| 20260506165039 | 64 | 206 | 3.0 | 8.0 | 0.01 | 0.13 | 0.13 | 87 | 1010.9 |
| 20260506164941 | 64 | 204 | 4.0 | 8.0 | 0.02 | 0.13 | 0.13 | 86 | 1011.0 |
| 20260506164824 | 64 | 240 | 4.0 | 8.0 | 0.02 | 0.13 | 0.13 | 86 | 1011.0 |
| 20260506164723 | 63 | 227 | 4.0 | 8.0 | 0.02 | 0.13 | 0.13 | 87 | 1011.0 |
| 20260506164638 | 63 | 210 | 3.0 | 9.0 | 0.02 | 0.13 | 0.13 | 87 | 1011.0 |
| 20260506164635 | 63 | 188 | 2.0 | 7.0 | 0.02 | 0.13 | 0.13 | 88 | 1011.0 |
| 20260506164425 | 63 | 196 | 2.0 | 7.0 | 0.02 | 0.13 | 0.13 | 87 | 1011.0 |
| 20260506164328 | 63 | 234 | 2.0 | 7.0 | 0.02 | 0.13 | 0.13 | 87 | 1011.1 |
| 20260506164246 | 63 | 228 | 3.0 | 7.0 | 0.02 | 0.13 | 0.13 | 88 | 1011.3 |
| 20260506164145 | 63 | 166 | 4.0 | 10.0 | 0.02 | 0.13 | 0.13 | 87 | 1011.3 |
| 20260506164026 | 63 | 231 | 2.0 | 10.0 | 0.02 | 0.13 | 0.13 | 88 | 1011.3 |
| 20260506163922 | 63 | 117 | 3.0 | 10.0 | 0.03 | 0.13 | 0.13 | 87 | 1011.3 |
| 20260506163835 | 63 | 217 | 5.0 | 10.0 | 0.03 | 0.13 | 0.13 | 87 | 1011.2 |
| 20260506163725 | 63 | 198 | 4.0 | 10.0 | 0.03 | 0.13 | 0.13 | 87 | 1011.2 |
| 20260506163635 | 63 | 175 | 2.0 | 10.0 | 0.03 | 0.13 | 0.13 | 87 | 1011.1 |
| 20260506163542 | 62 | 270 | 2.0 | 14.0 | 0.04 | 0.13 | 0.13 | 87 | 1011.1 |
| 20260506163425 | 62 | 203 | 4.0 | 14.0 | 0.04 | 0.13 | 0.13 | 87 | 1011.1 |
| 20260506163328 | 62 | 222 | 3.0 | 14.0 | 0.04 | 0.13 | 0.13 | 87 | 1011.1 |
| 20260506163225 | 62 | 158 | 2.0 | 14.0 | 0.04 | 0.13 | 0.13 | 87 | 1011.1 |
| 20260506163151 | 62 | 167 | 2.0 | 14.0 | 0.04 | 0.13 | 0.13 | 87 | 1011.1 |
| 20260506163112 | 62 | 163 | 1.0 | 14.0 | 0.04 | 0.13 | 0.13 | 88 | 1011.1 |
| 20260506162944 | 62 | 209 | 3.0 | 14.0 | 0.04 | 0.13 | 0.13 | 87 | 1011.2 |
| 20260506162835 | 62 | 157 | 5.0 | 14.0 | 0.04 | 0.13 | 0.13 | 87 | 1011.2 |
| 20260506162726 | 62 | 193 | 5.0 | 15.0 | 0.04 | 0.13 | 0.13 | 87 | 1011.1 |
| 20260506162626 | 62 | 210 | 3.0 | 12.0 | 0.04 | 0.13 | 0.13 | 88 | 1011.1 |
| 20260506162537 | 62 | 219 | 3.0 | 10.0 | 0.04 | 0.13 | 0.13 | 88 | 1011.1 |
| 20260506162432 | 62 | 191 | 3.0 | 10.0 | 0.04 | 0.13 | 0.13 | 88 | 1011.1 |
| 20260506162333 | 62 | 188 | 3.0 | 10.0 | 0.04 | 0.13 | 0.13 | 87 | 1011.1 |
| 20260506162243 | 62 | 157 | 4.0 | 10.0 | 0.04 | 0.13 | 0.13 | 88 | 1011.1 |
| 20260506162130 | 62 | 154 | 5.0 | 10.0 | 0.04 | 0.13 | 0.13 | 88 | 1011.2 |
| 20260506162021 | 62 | 200 | 4.0 | 10.0 | 0.04 | 0.13 | 0.13 | 87 | 1011.2 |
| 20260506161938 | 62 | 181 | 5.0 | 10.0 | 0.06 | 0.13 | 0.13 | 88 | 1011.1 |
| 20260506161828 | 62 | 228 | 4.0 | 10.0 | 0.06 | 0.13 | 0.13 | 87 | 1011.1 |
| 20260506161742 | 62 | 234 | 3.0 | 9.0 | 0.07 | 0.13 | 0.13 | 87 | 1011.0 |
| 20260506161702 | 62 | 156 | 4.0 | 9.0 | 0.08 | 0.13 | 0.13 | 88 | 1010.9 |
| 20260506161557 | 62 | 238 | 5.0 | 10.0 | 0.08 | 0.13 | 0.13 | 87 | 1011.0 |
| 20260506161426 | 62 | 193 | 5.0 | 10.0 | 0.08 | 0.13 | 0.13 | 87 | 1011.0 |
| 20260506161340 | 62 | 257 | 4.0 | 10.0 | 0.08 | 0.13 | 0.13 | 87 | 1011.1 |
| 20260506161212 | 62 | 168 | 4.0 | 10.0 | 0.08 | 0.13 | 0.13 | 87 | 1011.0 |
| 20260506161209 | 62 | 211 | 4.0 | 10.0 | 0.08 | 0.13 | 0.13 | 87 | 1011.1 |
| 20260506161029 | 62 | 190 | 4.0 | 10.0 | 0.08 | 0.13 | 0.13 | 87 | 1011.1 |
| 20260506160923 | 62 | 209 | 4.0 | 10.0 | 0.08 | 0.13 | 0.13 | 87 | 1011.0 |
| 20260506160819 | 62 | 186 | 4.0 | 10.0 | 0.08 | 0.13 | 0.13 | 87 | 1011.1 |
| 20260506160743 | 62 | 153 | 4.0 | 15.0 | 0.09 | 0.13 | 0.13 | 88 | 1011.1 |
| 20260506160633 | 62 | 199 | 4.0 | 15.0 | 0.09 | 0.13 | 0.13 | 87 | 1011.2 |
| 20260506160515 | 62 | 248 | 3.0 | 15.0 | 0.09 | 0.13 | 0.13 | 88 | 1011.2 |
| 20260506160444 | 62 | 227 | 3.0 | 15.0 | 0.09 | 0.13 | 0.13 | 87 | 1011.1 |
| 20260506160331 | 62 | 211 | 5.0 | 15.0 | 0.08 | 0.12 | 0.12 | 87 | 1011.1 |
| 20260506160231 | 62 | 180 | 5.0 | 15.0 | 0.08 | 0.12 | 0.12 | 87 | 1011.1 |
| 20260506160214 | 62 | 263 | 4.0 | 15.0 | 0.08 | 0.12 | 0.12 | 87 | 1011.1 |
| 20260506160134 | 62 | 215 | 6.0 | 15.0 | 0.08 | 0.12 | 0.12 | 87 | 1011.1 |
| 20260506155921 | 62 | 227 | 5.0 | 15.0 | 0.08 | 0.12 | 0.12 | 87 | 1011.1 |
| 20260506155833 | 62 | 150 | 3.0 | 13.0 | 0.08 | 0.12 | 0.12 | 87 | 1011.0 |
| 20260506155735 | 62 | 217 | 3.0 | 13.0 | 0.08 | 0.12 | 0.12 | 87 | 1011.0 |
| 20260506155641 | 62 | 213 | 4.0 | 13.0 | 0.08 | 0.12 | 0.12 | 87 | 1011.1 |
| 20260506155519 | 62 | 156 | 6.0 | 13.0 | 0.08 | 0.12 | 0.12 | 86 | 1011.1 |
| 20260506155433 | 62 | 166 | 4.0 | 13.0 | 0.08 | 0.12 | 0.12 | 87 | 1011.2 |
| 20260506155322 | 62 | 185 | 3.0 | 10.0 | 0.08 | 0.12 | 0.12 | 87 | 1011.2 |
| 20260506155224 | 62 | 150 | 3.0 | 10.0 | 0.08 | 0.12 | 0.12 | 87 | 1011.3 |
| 20260506155120 | 62 | 147 | 4.0 | 10.0 | 0.08 | 0.12 | 0.12 | 86 | 1011.2 |
| 20260506155046 | 62 | 182 | 4.0 | 10.0 | 0.07 | 0.11 | 0.11 | 86 | 1011.3 |
| 20260506154933 | 62 | 190 | 4.0 | 10.0 | 0.07 | 0.11 | 0.11 | 86 | 1011.3 |
| 20260506154845 | 62 | 150 | 5.0 | 10.0 | 0.07 | 0.11 | 0.11 | 86 | 1011.3 |
| 20260506154743 | 62 | 174 | 3.0 | 10.0 | 0.07 | 0.11 | 0.11 | 86 | 1011.3 |
| 20260506154649 | 62 | 151 | 4.0 | 10.0 | 0.07 | 0.11 | 0.11 | 86 | 1011.4 |
| 20260506154625 | 62 | 242 | 5.0 | 10.0 | 0.07 | 0.11 | 0.11 | 86 | 1011.3 |
| 20260506154435 | 62 | 213 | 4.0 | 10.0 | 0.07 | 0.11 | 0.11 | 86 | 1011.4 |
| 20260506154322 | 62 | 200 | 4.0 | 10.0 | 0.07 | 0.11 | 0.11 | 86 | 1011.4 |
| 20260506154230 | 62 | 202 | 3.0 | 10.0 | 0.07 | 0.11 | 0.11 | 86 | 1011.4 |
| 20260506154143 | 62 | 149 | 3.0 | 10.0 | 0.07 | 0.11 | 0.11 | 86 | 1011.5 |
| 20260506154045 | 62 | 184 | 4.0 | 10.0 | 0.06 | 0.09 | 0.09 | 86 | 1011.5 |
| 20260506153936 | 62 | 262 | 5.0 | 10.0 | 0.07 | 0.09 | 0.09 | 86 | 1011.5 |
| 20260506153831 | 62 | 132 | 4.0 | 9.0 | 0.07 | 0.09 | 0.09 | 85 | 1011.5 |
| 20260506153727 | 62 | 267 | 4.0 | 9.0 | 0.07 | 0.09 | 0.09 | 85 | 1011.6 |
| 20260506153623 | 62 | 142 | 5.0 | 9.0 | 0.06 | 0.09 | 0.09 | 85 | 1011.7 |
| 20260506153548 | 62 | 163 | 4.0 | 9.0 | 0.06 | 0.09 | 0.09 | 85 | 1011.7 |
| 20260506153440 | 63 | 183 | 2.0 | 9.0 | 0.06 | 0.09 | 0.09 | 86 | 1011.8 |
| 20260506153332 | 63 | 174 | 3.0 | 9.0 | 0.06 | 0.09 | 0.09 | 85 | 1011.7 |
| 20260506153210 | 63 | 176 | 3.0 | 9.0 | 0.06 | 0.09 | 0.09 | 85 | 1011.7 |
| 20260506153203 | 63 | 99 | 2.0 | 8.0 | 0.06 | 0.09 | 0.09 | 85 | 1011.7 |
| 20260506153112 | 63 | 174 | 2.0 | 8.0 | 0.06 | 0.09 | 0.09 | 85 | 1011.7 |
| 20260506152944 | 63 | 163 | 2.0 | 8.0 | 0.04 | 0.08 | 0.08 | 85 | 1011.8 |
| 20260506152834 | 63 | 209 | 4.0 | 8.0 | 0.04 | 0.08 | 0.08 | 85 | 1011.8 |
| 20260506152721 | 63 | 225 | 5.0 | 8.0 | 0.04 | 0.08 | 0.08 | 85 | 1011.9 |
| 20260506152644 | 63 | 235 | 4.0 | 9.0 | 0.04 | 0.08 | 0.08 | 85 | 1011.8 |
| 20260506152530 | 63 | 195 | 3.0 | 9.0 | 0.04 | 0.08 | 0.08 | 85 | 1011.9 |
| 20260506152448 | 63 | 148 | 2.0 | 9.0 | 0.04 | 0.08 | 0.08 | 85 | 1011.9 |
| 20260506152342 | 63 | 141 | 2.0 | 9.0 | 0.04 | 0.08 | 0.08 | 85 | 1011.8 |
| 20260506152237 | 63 | 207 | 2.0 | 9.0 | 0.04 | 0.08 | 0.08 | 84 | 1011.9 |
| 20260506152136 | 63 | 152 | 2.0 | 9.0 | 0.04 | 0.08 | 0.08 | 84 | 1011.9 |
| 20260506152041 | 63 | 229 | 3.0 | 9.0 | 0.04 | 0.07 | 0.07 | 83 | 1012.0 |
| 20260506151945 | 63 | 181 | 4.0 | 9.0 | 0.04 | 0.07 | 0.07 | 83 | 1012.0 |
| 20260506151822 | 63 | 236 | 3.0 | 10.0 | 0.04 | 0.06 | 0.06 | 83 | 1012.0 |
| 20260506151747 | 63 | 203 | 3.0 | 8.0 | 0.03 | 0.04 | 0.04 | 82 | 1012.0 |
| 20260506151701 | 63 | 172 | 3.0 | 9.0 | 0.03 | 0.04 | 0.04 | 83 | 1012.0 |
| 20260506151623 | 63 | 186 | 4.0 | 9.0 | 0.03 | 0.04 | 0.04 | 82 | 1012.0 |
| 20260506151439 | 63 | 211 | 3.0 | 10.0 | 0.03 | 0.04 | 0.04 | 83 | 1011.9 |
| 20260506151328 | 63 | 266 | 3.0 | 10.0 | 0.03 | 0.04 | 0.04 | 83 | 1011.9 |
| 20260506151239 | 63 | 132 | 3.0 | 10.0 | 0.03 | 0.04 | 0.04 | 82 | 1011.8 |
| 20260506151144 | 63 | 119 | 4.0 | 10.0 | 0.03 | 0.04 | 0.04 | 83 | 1011.9 |
| 20260506151035 | 64 | 173 | 4.0 | 10.0 | 0.03 | 0.04 | 0.04 | 82 | 1011.9 |
| 20260506150936 | 63 | 207 | 5.0 | 10.0 | 0.03 | 0.04 | 0.04 | 82 | 1011.8 |
| 20260506150842 | 63 | 122 | 5.0 | 10.0 | 0.02 | 0.04 | 0.04 | 83 | 1011.8 |
| 20260506150742 | 63 | 268 | 5.0 | 10.0 | 0.03 | 0.04 | 0.04 | 82 | 1011.9 |
| 20260506150635 | 64 | 219 | 3.0 | 10.0 | 0.03 | 0.04 | 0.04 | 83 | 1011.8 |
| 20260506150519 | 64 | 188 | 2.0 | 7.0 | 0.03 | 0.04 | 0.04 | 83 | 1011.8 |
| 20260506150429 | 64 | 219 | 2.0 | 7.0 | 0.03 | 0.04 | 0.04 | 83 | 1011.8 |
| 20260506150333 | 64 | 220 | 3.0 | 7.0 | 0.03 | 0.04 | 0.04 | 82 | 1011.9 |
| 20260506150245 | 64 | 102 | 3.0 | 7.0 | 0.03 | 0.04 | 0.04 | 83 | 1011.9 |
| 20260506150202 | 64 | 228 | 2.0 | 9.0 | 0.03 | 0.04 | 0.04 | 83 | 1012.0 |
| 20260506150130 | 64 | 219 | 2.0 | 9.0 | 0.03 | 0.04 | 0.04 | 84 | 1012.0 |
| 20260506145922 | 64 | 161 | 2.0 | 9.0 | 0.03 | 0.04 | 0.04 | 83 | 1011.9 |
| 20260506145845 | 64 | 202 | 2.0 | 9.0 | 0.03 | 0.04 | 0.04 | 83 | 1011.9 |
| 20260506145730 | 63 | 194 | 1.0 | 9.0 | 0.03 | 0.04 | 0.04 | 83 | 1011.9 |
| 20260506145642 | 63 | 165 | 1.0 | 9.0 | 0.03 | 0.04 | 0.04 | 83 | 1012.0 |
| 20260506145530 | 63 | 173 | 2.0 | 9.0 | 0.04 | 0.04 | 0.04 | 84 | 1011.9 |
| 20260506145441 | 63 | 203 | 3.0 | 9.0 | 0.04 | 0.04 | 0.04 | 83 | 1012.0 |
| 20260506145340 | 63 | 246 | 3.0 | 7.0 | 0.04 | 0.04 | 0.04 | 83 | 1012.0 |
| 20260506145224 | 63 | 200 | 3.0 | 6.0 | 0.04 | 0.04 | 0.04 | 83 | 1012.0 |
| 20260506145125 | 63 | 196 | 1.0 | 5.0 | 0.04 | 0.04 | 0.04 | 83 | 1012.0 |
| 20260506145045 | 63 | 227 | 1.0 | 5.0 | 0.04 | 0.04 | 0.04 | 85 | 1012.0 |
| 20260506144939 | 63 | 228 | 2.0 | 5.0 | 0.04 | 0.04 | 0.04 | 84 | 1012.0 |
| 20260506144830 | 63 | 234 | 2.0 | 5.0 | 0.04 | 0.04 | 0.04 | 84 | 1012.0 |
| 20260506144739 | 63 | 167 | 2.0 | 5.0 | 0.04 | 0.04 | 0.04 | 84 | 1012.0 |
| 20260506144654 | 63 | 186 | 2.0 | 5.0 | 0.04 | 0.04 | 0.04 | 84 | 1012.0 |
| 20260506144618 | 63 | 171 | 3.0 | 5.0 | 0.04 | 0.04 | 0.04 | 84 | 1012.1 |
| 20260506144433 | 63 | 183 | 2.0 | 5.0 | 0.04 | 0.04 | 0.04 | 85 | 1012.0 |
| 20260506144317 | 63 | 153 | 1.0 | 5.0 | 0.04 | 0.04 | 0.04 | 84 | 1012.1 |
| 20260506144226 | 63 | 153 | 1.0 | 5.0 | 0.04 | 0.04 | 0.04 | 84 | 1012.1 |
| 20260506144127 | 63 | 175 | 1.0 | 3.0 | 0.04 | 0.04 | 0.04 | 84 | 1012.1 |
| 20260506144026 | 63 | 233 | 1.0 | 3.0 | 0.03 | 0.03 | 0.03 | 84 | 1012.0 |
| 20260506143941 | 63 | 171 | 0.0 | 3.0 | 0.03 | 0.03 | 0.03 | 83 | 1012.1 |
| 20260506143840 | 63 | 184 | 1.0 | 3.0 | 0.03 | 0.03 | 0.03 | 83 | 1012.1 |
| 20260506143725 | 63 | 185 | 1.0 | 5.0 | 0.03 | 0.03 | 0.03 | 83 | 1012.1 |
| 20260506143627 | 63 | 184 | 1.0 | 5.0 | 0.03 | 0.03 | 0.03 | 83 | 1012.0 |
| 20260506143531 | 63 | 158 | 1.0 | 5.0 | 0.03 | 0.03 | 0.03 | 83 | 1012.1 |
| 20260506143442 | 63 | 165 | 1.0 | 5.0 | 0.03 | 0.03 | 0.03 | 83 | 1012.0 |
| 20260506143342 | 63 | 188 | 1.0 | 5.0 | 0.03 | 0.03 | 0.03 | 83 | 1012.0 |
| 20260506143220 | 63 | 188 | 1.0 | 5.0 | 0.03 | 0.03 | 0.03 | 83 | 1012.0 |
| 20260506143154 | 63 | 184 | 1.0 | 5.0 | 0.03 | 0.03 | 0.03 | 83 | 1011.9 |
| 20260506143106 | 63 | 174 | 1.0 | 5.0 | 0.03 | 0.03 | 0.03 | 84 | 1012.0 |
| 20260506142945 | 63 | 173 | 1.0 | 5.0 | 0.03 | 0.03 | 0.03 | 84 | 1011.9 |
| 20260506142828 | 63 | 156 | 1.0 | 5.0 | 0.03 | 0.03 | 0.03 | 84 | 1011.9 |
| 20260506142728 | 63 | 169 | 1.0 | 3.0 | 0.03 | 0.03 | 0.03 | 83 | 1012.0 |
| 20260506142639 | 63 | 178 | 1.0 | 6.0 | 0.03 | 0.03 | 0.03 | 83 | 1012.0 |
| 20260506142515 | 63 | 184 | 1.0 | 6.0 | 0.03 | 0.03 | 0.03 | 83 | 1012.0 |
| 20260506142513 | 63 | 182 | 1.0 | 6.0 | 0.03 | 0.03 | 0.03 | 83 | 1012.0 |
| 20260506142345 | 63 | 157 | 0.0 | 6.0 | 0.03 | 0.03 | 0.03 | 84 | 1012.0 |
| 20260506142235 | 63 | 202 | 0.0 | 6.0 | 0.03 | 0.03 | 0.03 | 82 | 1012.0 |
| 20260506142127 | 63 | 202 | 1.0 | 6.0 | 0.02 | 0.02 | 0.02 | 82 | 1011.9 |
| 20260506142024 | 63 | 202 | 1.0 | 6.0 | 0.02 | 0.02 | 0.02 | 82 | 1012.0 |
| 20260506141930 | 63 | 202 | 2.0 | 6.0 | 0.02 | 0.02 | 0.02 | 81 | 1011.9 |
| 20260506141827 | 63 | 190 | 2.0 | 5.0 | 0.02 | 0.02 | 0.02 | 82 | 1012.0 |
| 20260506141718 | 63 | 228 | 2.0 | 5.0 | 0.02 | 0.02 | 0.02 | 81 | 1011.9 |
| 20260506141637 | 63 | 214 | 1.0 | 3.0 | 0.02 | 0.02 | 0.02 | 82 | 1012.0 |
| 20260506141424 | 63 | 201 | 1.0 | 3.0 | 0.02 | 0.02 | 0.02 | 81 | 1012.0 |
| 20260506141341 | 63 | 198 | 1.0 | 3.0 | 0.02 | 0.02 | 0.02 | 83 | 1011.9 |
| 20260506141229 | 63 | 146 | 1.0 | 3.0 | 0.02 | 0.02 | 0.02 | 81 | 1011.9 |
| 20260506141126 | 63 | 180 | 1.0 | 3.0 | 0.02 | 0.02 | 0.02 | 81 | 1011.9 |
| 20260506141045 | 63 | 188 | 1.0 | 4.0 | 0.02 | 0.02 | 0.02 | 81 | 1011.9 |
| 20260506140943 | 63 | 192 | 0.0 | 5.0 | 0.02 | 0.02 | 0.02 | 83 | 1011.9 |
| 20260506140819 | 63 | 206 | 0.0 | 5.0 | 0.01 | 0.01 | 0.01 | 83 | 1011.9 |
| 20260506140723 | 63 | 206 | 0.0 | 6.0 | 0.01 | 0.01 | 0.01 | 82 | 1012.0 |
| 20260506140631 | 63 | 206 | 0.0 | 6.0 | 0.01 | 0.01 | 0.01 | 81 | 1012.0 |
| 20260506140551 | 63 | 206 | 1.0 | 6.0 | 0.01 | 0.01 | 0.01 | 80 | 1012.1 |
| 20260506140424 | 63 | 202 | 1.0 | 6.0 | 0.01 | 0.01 | 0.01 | 80 | 1012.1 |
| 20260506140332 | 63 | 193 | 1.0 | 6.0 | 0.01 | 0.01 | 0.01 | 80 | 1012.1 |
| 20260506140227 | 63 | 205 | 2.0 | 6.0 | 0.01 | 0.01 | 0.01 | 79 | 1012.2 |
| 20260506140213 | 63 | 235 | 2.0 | 6.0 | 0.01 | 0.01 | 0.01 | 79 | 1012.1 |
| 20260506140210 | 63 | 219 | 2.0 | 6.0 | 0.01 | 0.01 | 0.01 | 80 | 1012.1 |
| 20260506135926 | 64 | 238 | 2.0 | 6.0 | 0.01 | 0.01 | 0.01 | 78 | 1012.1 |
| 20260506135844 | 64 | 250 | 2.0 | 7.0 | 0.01 | 0.01 | 0.01 | 78 | 1012.1 |
| 20260506135729 | 64 | 261 | 2.0 | 7.0 | 0.01 | 0.01 | 0.01 | 77 | 1012.0 |
| 20260506135626 | 64 | 246 | 2.0 | 7.0 | 0.00 | 0.00 | 0.00 | 76 | 1012.0 |
| 20260506135546 | 64 | 194 | 3.0 | 7.0 | 0.00 | 0.00 | 0.00 | 76 | 1012.0 |
| 20260506135426 | 64 | 197 | 3.0 | 7.0 | 0.00 | 0.00 | 0.00 | 76 | 1012.0 |
| 20260506135318 | 64 | 193 | 2.0 | 8.0 | 0.00 | 0.00 | 0.00 | 76 | 1012.1 |
| 20260506135229 | 64 | 228 | 1.0 | 8.0 | 0.00 | 0.00 | 0.00 | 76 | 1012.1 |
| 20260506135144 | 64 | 225 | 2.0 | 8.0 | 0.00 | 0.00 | 0.00 | 76 | 1012.1 |
| 20260506135038 | 64 | 225 | 3.0 | 8.0 | 0.00 | 0.00 | 0.00 | 74 | 1012.1 |
| 20260506134937 | 65 | 199 | 3.0 | 8.0 | 0.00 | 0.00 | 0.00 | 74 | 1012.0 |
| 20260506134836 | 65 | 168 | 2.0 | 8.0 | 0.00 | 0.00 | 0.00 | 74 | 1012.0 |
| 20260506134739 | 65 | 183 | 2.0 | 8.0 | 0.00 | 0.00 | 0.00 | 74 | 1011.9 |
| 20260506134645 | 65 | 267 | 3.0 | 8.0 | 0.00 | 0.00 | 0.00 | 74 | 1011.9 |
| 20260506134642 | 65 | 134 | 2.0 | 9.0 | 0.00 | 0.00 | 0.00 | 73 | 1011.9 |
| 20260506134437 | 65 | 152 | 2.0 | 7.0 | 0.00 | 0.00 | 0.00 | 74 | 1011.9 |
| 20260506134320 | 65 | 160 | 4.0 | 7.0 | 0.00 | 0.00 | 0.00 | 73 | 1011.9 |
| 20260506134242 | 65 | 219 | 3.0 | 8.0 | 0.00 | 0.00 | 0.00 | 72 | 1011.9 |
| 20260506134136 | 65 | 190 | 2.0 | 9.0 | 0.00 | 0.00 | 0.00 | 73 | 1011.9 |
| 20260506134026 | 65 | 126 | 2.0 | 9.0 | 0.00 | 0.00 | 0.00 | 72 | 1011.9 |
| 20260506133933 | 65 | 175 | 1.0 | 10.0 | 0.00 | 0.00 | 0.00 | 72 | 1011.9 |
| 20260506133819 | 66 | 157 | 1.0 | 11.0 | 0.00 | 0.00 | 0.00 | 72 | 1011.9 |
| 20260506133740 | 66 | 150 | 2.0 | 11.0 | 0.00 | 0.00 | 0.00 | 71 | 1012.0 |
| 20260506133626 | 66 | 219 | 2.0 | 11.0 | 0.00 | 0.00 | 0.00 | 71 | 1012.1 |
| 20260506133530 | 66 | 200 | 3.0 | 11.0 | 0.00 | 0.00 | 0.00 | 71 | 1012.1 |
| 20260506133428 | 66 | 186 | 4.0 | 11.0 | 0.00 | 0.00 | 0.00 | 69 | 1012.1 |
| 20260506133325 | 66 | 177 | 5.0 | 11.0 | 0.00 | 0.00 | 0.00 | 70 | 1012.0 |
| 20260506133230 | 66 | 223 | 5.0 | 11.0 | 0.00 | 0.00 | 0.00 | 70 | 1011.9 |
| 20260506133200 | 66 | 206 | 5.0 | 11.0 | 0.00 | 0.00 | 0.00 | 70 | 1011.7 |
| 20260506133116 | 66 | 205 | 4.0 | 11.0 | 0.00 | 0.00 | 0.00 | 69 | 1011.9 |
| 20260506132928 | 66 | 209 | 4.0 | 11.0 | 0.00 | 0.00 | 0.00 | 69 | 1012.0 |
| 20260506132824 | 66 | 244 | 4.0 | 11.0 | 0.00 | 0.00 | 0.00 | 69 | 1012.0 |
| 20260506132741 | 66 | 143 | 3.0 | 11.0 | 0.00 | 0.00 | 0.00 | 69 | 1011.9 |
| 20260506132637 | 66 | 138 | 3.0 | 11.0 | 0.00 | 0.00 | 0.00 | 69 | 1011.9 |
| 20260506132544 | 66 | 230 | 3.0 | 11.0 | 0.00 | 0.00 | 0.00 | 69 | 1011.9 |
| 20260506132425 | 66 | 137 | 5.0 | 11.0 | 0.00 | 0.00 | 0.00 | 68 | 1011.9 |
| 20260506132349 | 66 | 153 | 4.0 | 11.0 | 0.00 | 0.00 | 0.00 | 68 | 1011.8 |
| 20260506132221 | 66 | 263 | 4.0 | 10.0 | 0.00 | 0.00 | 0.00 | 68 | 1011.9 |
| 20260506132141 | 66 | 179 | 3.0 | 11.0 | 0.00 | 0.00 | 0.00 | 68 | 1011.9 |
| 20260506132021 | 66 | 90 | 3.0 | 10.0 | 0.00 | 0.00 | 0.00 | 68 | 1011.9 |
| 20260506131920 | 66 | 219 | 5.0 | 10.0 | 0.00 | 0.00 | 0.00 | 68 | 1011.9 |
| 20260506131849 | 66 | 199 | 4.0 | 10.0 | 0.00 | 0.00 | 0.00 | 67 | 1011.8 |
| 20260506131747 | 66 | 227 | 4.0 | 9.0 | 0.00 | 0.00 | 0.00 | 67 | 1011.9 |
| 20260506131705 | 66 | 161 | 4.0 | 9.0 | 0.00 | 0.00 | 0.00 | 67 | 1011.9 |
| 20260506131703 | 66 | 173 | 4.0 | 9.0 | 0.00 | 0.00 | 0.00 | 67 | 1011.8 |
| 20260506131430 | 66 | 194 | 4.0 | 8.0 | 0.00 | 0.00 | 0.00 | 67 | 1011.8 |
| 20260506131322 | 66 | 213 | 3.0 | 9.0 | 0.00 | 0.00 | 0.00 | 68 | 1011.8 |
| 20260506131226 | 66 | 219 | 4.0 | 9.0 | 0.00 | 0.00 | 0.00 | 67 | 1011.8 |
| 20260506131120 | 67 | 230 | 4.0 | 9.0 | 0.00 | 0.00 | 0.00 | 67 | 1011.7 |
| 20260506131022 | 67 | 193 | 3.0 | 9.0 | 0.00 | 0.00 | 0.00 | 67 | 1011.7 |
| 20260506130924 | 67 | 287 | 3.0 | 7.0 | 0.00 | 0.00 | 0.00 | 67 | 1011.7 |
| 20260506130819 | 67 | 161 | 3.0 | 8.0 | 0.00 | 0.00 | 0.00 | 67 | 1011.6 |
| 20260506130747 | 67 | 180 | 2.0 | 11.0 | 0.00 | 0.00 | 0.00 | 68 | 1011.7 |
| 20260506130625 | 67 | 240 | 2.0 | 11.0 | 0.00 | 0.00 | 0.00 | 68 | 1011.6 |
| 20260506130515 | 67 | 129 | 3.0 | 11.0 | 0.00 | 0.00 | 0.00 | 68 | 1011.6 |
| 20260506130443 | 66 | 160 | 2.0 | 11.0 | 0.00 | 0.00 | 0.00 | 68 | 1011.6 |
| 20260506130322 | 66 | 210 | 2.0 | 11.0 | 0.00 | 0.00 | 0.00 | 67 | 1011.6 |
| 20260506130236 | 66 | 190 | 3.0 | 11.0 | 0.00 | 0.00 | 0.00 | 68 | 1011.6 |
| 20260506130139 | 66 | 243 | 4.0 | 11.0 | 0.00 | 0.00 | 0.00 | 67 | 1011.6 |
| 20260506130134 | 67 | 99 | 4.0 | 11.0 | 0.00 | 0.00 | 0.00 | 67 | 1011.6 |
| 20260506125950 | 67 | 169 | 4.0 | 11.0 | 0.00 | 0.00 | 0.00 | 67 | 1011.6 |
| 20260506125837 | 67 | 242 | 3.0 | 10.0 | 0.00 | 0.00 | 0.00 | 67 | 1011.6 |
| 20260506125722 | 67 | 181 | 2.0 | 10.0 | 0.00 | 0.00 | 0.00 | 68 | 1011.6 |
| 20260506125634 | 67 | 165 | 3.0 | 10.0 | 0.00 | 0.00 | 0.00 | 67 | 1011.6 |
| 20260506125519 | 67 | 183 | 4.0 | 10.0 | 0.00 | 0.00 | 0.00 | 67 | 1011.5 |
| 20260506125440 | 66 | 170 | 4.0 | 10.0 | 0.00 | 0.00 | 0.00 | 67 | 1011.5 |
| 20260506125329 | 66 | 128 | 4.0 | 10.0 | 0.00 | 0.00 | 0.00 | 67 | 1011.4 |
| 20260506125222 | 66 | 201 | 4.0 | 10.0 | 0.00 | 0.00 | 0.00 | 67 | 1011.5 |
| 20260506125138 | 66 | 248 | 4.0 | 10.0 | 0.00 | 0.00 | 0.00 | 67 | 1011.5 |
| 20260506125023 | 66 | 163 | 4.0 | 10.0 | 0.00 | 0.00 | 0.00 | 67 | 1011.5 |
| 20260506124932 | 66 | 316 | 4.0 | 10.0 | 0.00 | 0.00 | 0.00 | 68 | 1011.5 |
| 20260506124827 | 66 | 202 | 4.0 | 10.0 | 0.00 | 0.00 | 0.00 | 67 | 1011.5 |
| 20260506124734 | 66 | 155 | 3.0 | 10.0 | 0.00 | 0.00 | 0.00 | 67 | 1011.5 |
| 20260506124654 | 66 | 234 | 4.0 | 10.0 | 0.00 | 0.00 | 0.00 | 67 | 1011.5 |
| 20260506124609 | 66 | 136 | 4.0 | 10.0 | 0.00 | 0.00 | 0.00 | 67 | 1011.5 |
| 20260506124446 | 67 | 221 | 3.0 | 10.0 | 0.00 | 0.00 | 0.00 | 67 | 1011.5 |
| 20260506124320 | 67 | 157 | 3.0 | 10.0 | 0.00 | 0.00 | 0.00 | 67 | 1011.6 |
| 20260506124235 | 67 | 150 | 4.0 | 11.0 | 0.00 | 0.00 | 0.00 | 67 | 1011.5 |
| 20260506124120 | 67 | 208 | 3.0 | 10.0 | 0.00 | 0.00 | 0.00 | 67 | 1011.5 |
| 20260506124022 | 66 | 130 | 3.0 | 10.0 | 0.00 | 0.00 | 0.00 | 68 | 1011.5 |
| 20260506123924 | 66 | 208 | 3.0 | 10.0 | 0.00 | 0.00 | 0.00 | 67 | 1011.5 |
| 20260506123831 | 66 | 204 | 3.0 | 10.0 | 0.00 | 0.00 | 0.00 | 68 | 1011.5 |
| 20260506123721 | 66 | 225 | 3.0 | 10.0 | 0.00 | 0.00 | 0.00 | 67 | 1011.4 |
| 20260506123619 | 66 | 205 | 4.0 | 10.0 | 0.00 | 0.00 | 0.00 | 68 | 1011.5 |
| 20260506123537 | 66 | 236 | 6.0 | 10.0 | 0.00 | 0.00 | 0.00 | 67 | 1011.4 |
| 20260506123426 | 66 | 133 | 5.0 | 10.0 | 0.00 | 0.00 | 0.00 | 68 | 1011.3 |
| 20260506123326 | 66 | 249 | 4.0 | 10.0 | 0.00 | 0.00 | 0.00 | 68 | 1011.4 |
| 20260506123227 | 66 | 169 | 4.0 | 10.0 | 0.00 | 0.00 | 0.00 | 67 | 1011.5 |
| 20260506123201 | 66 | 208 | 4.0 | 10.0 | 0.00 | 0.00 | 0.00 | 68 | 1011.4 |
| 20260506123119 | 66 | 153 | 3.0 | 10.0 | 0.00 | 0.00 | 0.00 | 68 | 1011.5 |
| 20260506122926 | 66 | 186 | 2.0 | 10.0 | 0.00 | 0.00 | 0.00 | 68 | 1011.4 |
| 20260506122845 | 66 | 121 | 3.0 | 10.0 | 0.00 | 0.00 | 0.00 | 68 | 1011.5 |
| 20260506122744 | 66 | 176 | 2.0 | 10.0 | 0.00 | 0.00 | 0.00 | 68 | 1011.5 |
| 20260506122627 | 66 | 249 | 2.0 | 10.0 | 0.00 | 0.00 | 0.00 | 68 | 1011.4 |
| 20260506122526 | 66 | 169 | 2.0 | 10.0 | 0.00 | 0.00 | 0.00 | 68 | 1011.5 |
| 20260506122445 | 66 | 169 | 3.0 | 10.0 | 0.00 | 0.00 | 0.00 | 68 | 1011.5 |
| 20260506122342 | 66 | 252 | 3.0 | 11.0 | 0.00 | 0.00 | 0.00 | 68 | 1011.5 |
| 20260506122238 | 66 | 206 | 2.0 | 11.0 | 0.00 | 0.00 | 0.00 | 68 | 1011.6 |
| 20260506122134 | 66 | 224 | 2.0 | 11.0 | 0.00 | 0.00 | 0.00 | 68 | 1011.6 |
| 20260506122045 | 66 | 155 | 3.0 | 11.0 | 0.00 | 0.00 | 0.00 | 68 | 1011.6 |
| 20260506121941 | 66 | 157 | 3.0 | 11.0 | 0.00 | 0.00 | 0.00 | 68 | 1011.7 |
| 20260506121840 | 66 | 175 | 3.0 | 11.0 | 0.00 | 0.00 | 0.00 | 68 | 1011.7 |
| 20260506121720 | 66 | 188 | 4.0 | 11.0 | 0.00 | 0.00 | 0.00 | 68 | 1011.7 |
| 20260506121654 | 66 | 165 | 5.0 | 11.0 | 0.00 | 0.00 | 0.00 | 68 | 1011.8 |
| 20260506121621 | 66 | 258 | 5.0 | 11.0 | 0.00 | 0.00 | 0.00 | 68 | 1011.8 |
| 20260506121448 | 66 | 148 | 4.0 | 11.0 | 0.00 | 0.00 | 0.00 | 68 | 1011.8 |
| 20260506121322 | 66 | 227 | 3.0 | 11.0 | 0.00 | 0.00 | 0.00 | 68 | 1011.8 |
| 20260506121239 | 66 | 187 | 4.0 | 11.0 | 0.00 | 0.00 | 0.00 | 68 | 1011.8 |
| 20260506121128 | 66 | 132 | 4.0 | 11.0 | 0.00 | 0.00 | 0.00 | 68 | 1011.8 |
| 20260506121045 | 66 | 231 | 4.0 | 11.0 | 0.00 | 0.00 | 0.00 | 67 | 1011.8 |
| 20260506120946 | 66 | 215 | 3.0 | 11.0 | 0.00 | 0.00 | 0.00 | 68 | 1011.8 |
| 20260506120818 | 66 | 189 | 3.0 | 10.0 | 0.00 | 0.00 | 0.00 | 68 | 1011.8 |
| 20260506120741 | 66 | 155 | 4.0 | 10.0 | 0.00 | 0.00 | 0.00 | 68 | 1011.7 |
| 20260506120633 | 66 | 218 | 4.0 | 10.0 | 0.00 | 0.00 | 0.00 | 68 | 1011.7 |
| 20260506120541 | 66 | 130 | 3.0 | 10.0 | 0.00 | 0.00 | 0.00 | 69 | 1011.8 |
| 20260506120450 | 66 | 213 | 4.0 | 10.0 | 0.00 | 0.00 | 0.00 | 68 | 1011.8 |
| 20260506120328 | 66 | 179 | 4.0 | 10.0 | 0.00 | 0.00 | 0.00 | 68 | 1011.8 |
| 20260506120225 | 66 | 170 | 2.0 | 10.0 | 0.00 | 0.00 | 0.00 | 68 | 1011.9 |
| 20260506120157 | 65 | 225 | 3.0 | 10.0 | 0.00 | 0.00 | 0.00 | 68 | 1011.9 |
| 20260506115924 | 65 | 182 | 2.0 | 11.0 | 0.00 | 0.00 | 0.00 | 68 | 1012.0 |
| 20260506115847 | 65 | 179 | 2.0 | 11.0 | 0.00 | 0.00 | 0.00 | 68 | 1012.0 |
| 20260506115722 | 65 | 270 | 3.0 | 11.0 | 0.00 | 0.00 | 0.00 | 68 | 1011.9 |
| 20260506115633 | 65 | 216 | 2.0 | 11.0 | 0.00 | 0.00 | 0.00 | 68 | 1011.9 |
| 20260506115537 | 65 | 200 | 3.0 | 11.0 | 0.00 | 0.00 | 0.00 | 68 | 1012.0 |
| 20260506115443 | 65 | 202 | 3.0 | 11.0 | 0.00 | 0.00 | 0.00 | 69 | 1011.9 |
| 20260506115346 | 65 | 160 | 4.0 | 10.0 | 0.00 | 0.00 | 0.00 | 68 | 1011.9 |
| 20260506115234 | 65 | 185 | 3.0 | 10.0 | 0.00 | 0.00 | 0.00 | 68 | 1012.0 |
| 20260506115124 | 65 | 111 | 3.0 | 10.0 | 0.00 | 0.00 | 0.00 | 68 | 1011.9 |
| 20260506115040 | 65 | 171 | 3.0 | 10.0 | 0.00 | 0.00 | 0.00 | 69 | 1012.0 |
| 20260506114932 | 65 | 219 | 2.0 | 10.0 | 0.00 | 0.00 | 0.00 | 69 | 1011.9 |
| 20260506114849 | 65 | 258 | 2.0 | 10.0 | 0.00 | 0.00 | 0.00 | 69 | 1012.0 |
| 20260506114725 | 65 | 148 | 3.0 | 10.0 | 0.00 | 0.00 | 0.00 | 69 | 1011.9 |
| 20260506114647 | 65 | 235 | 4.0 | 10.0 | 0.00 | 0.00 | 0.00 | 69 | 1012.0 |
| 20260506114434 | 65 | 214 | 3.0 | 9.0 | 0.00 | 0.00 | 0.00 | 69 | 1011.9 |
| 20260506114341 | 65 | 190 | 3.0 | 8.0 | 0.00 | 0.00 | 0.00 | 69 | 1011.9 |
| 20260506114222 | 65 | 225 | 2.0 | 8.0 | 0.00 | 0.00 | 0.00 | 69 | 1011.8 |
| 20260506114135 | 65 | 194 | 2.0 | 7.0 | 0.00 | 0.00 | 0.00 | 69 | 1011.9 |
| 20260506114049 | 65 | 153 | 3.0 | 11.0 | 0.00 | 0.00 | 0.00 | 69 | 1011.8 |
| 20260506113921 | 65 | 177 | 3.0 | 11.0 | 0.00 | 0.00 | 0.00 | 69 | 1011.8 |
| 20260506113847 | 65 | 179 | 3.0 | 11.0 | 0.00 | 0.00 | 0.00 | 69 | 1011.8 |
| 20260506113744 | 65 | 194 | 3.0 | 11.0 | 0.00 | 0.00 | 0.00 | 69 | 1011.8 |
| 20260506113626 | 65 | 166 | 2.0 | 11.0 | 0.00 | 0.00 | 0.00 | 69 | 1011.8 |
| 20260506113542 | 65 | 169 | 2.0 | 11.0 | 0.00 | 0.00 | 0.00 | 69 | 1011.8 |
| 20260506113430 | 65 | 245 | 3.0 | 11.0 | 0.00 | 0.00 | 0.00 | 69 | 1011.8 |
| 20260506113330 | 65 | 150 | 4.0 | 11.0 | 0.00 | 0.00 | 0.00 | 69 | 1011.8 |
| 20260506113241 | 65 | 144 | 5.0 | 11.0 | 0.00 | 0.00 | 0.00 | 69 | 1011.8 |
| 20260506113149 | 65 | 211 | 6.0 | 12.0 | 0.00 | 0.00 | 0.00 | 69 | 1011.7 |
| 20260506112946 | 65 | 142 | 3.0 | 10.0 | 0.00 | 0.00 | 0.00 | 69 | 1011.7 |
| 20260506112846 | 65 | 159 | 3.0 | 10.0 | 0.00 | 0.00 | 0.00 | 69 | 1011.7 |
| 20260506112743 | 65 | 196 | 3.0 | 10.0 | 0.00 | 0.00 | 0.00 | 69 | 1011.8 |
| 20260506112642 | 64 | 206 | 4.0 | 10.0 | 0.00 | 0.00 | 0.00 | 70 | 1011.7 |
| 20260506112545 | 64 | 184 | 3.0 | 10.0 | 0.00 | 0.00 | 0.00 | 70 | 1011.8 |
| 20260506112432 | 64 | 181 | 3.0 | 8.0 | 0.00 | 0.00 | 0.00 | 70 | 1011.8 |
| 20260506112333 | 64 | 209 | 3.0 | 8.0 | 0.00 | 0.00 | 0.00 | 70 | 1011.8 |
| 20260506112228 | 64 | 207 | 4.0 | 8.0 | 0.00 | 0.00 | 0.00 | 70 | 1011.9 |
| 20260506112132 | 64 | 161 | 4.0 | 8.0 | 0.00 | 0.00 | 0.00 | 70 | 1011.8 |
| 20260506112044 | 64 | 146 | 3.0 | 8.0 | 0.00 | 0.00 | 0.00 | 70 | 1011.8 |
| 20260506111934 | 64 | 167 | 3.0 | 8.0 | 0.00 | 0.00 | 0.00 | 70 | 1011.8 |
| 20260506111827 | 64 | 206 | 4.0 | 8.0 | 0.00 | 0.00 | 0.00 | 70 | 1011.8 |
| 20260506111739 | 64 | 238 | 3.0 | 10.0 | 0.00 | 0.00 | 0.00 | 69 | 1011.9 |
| 20260506111652 | 64 | 167 | 4.0 | 10.0 | 0.00 | 0.00 | 0.00 | 70 | 1011.8 |
| 20260506111419 | 64 | 196 | 4.0 | 10.0 | 0.00 | 0.00 | 0.00 | 70 | 1011.8 |
| 20260506111323 | 64 | 140 | 3.0 | 10.0 | 0.00 | 0.00 | 0.00 | 70 | 1011.8 |
| 20260506111244 | 64 | 225 | 2.0 | 10.0 | 0.00 | 0.00 | 0.00 | 69 | 1011.9 |
| 20260506111121 | 64 | 191 | 2.0 | 10.0 | 0.00 | 0.00 | 0.00 | 70 | 1011.9 |
| 20260506111023 | 65 | 161 | 3.0 | 10.0 | 0.00 | 0.00 | 0.00 | 70 | 1011.9 |
| 20260506110924 | 64 | 148 | 3.0 | 10.0 | 0.00 | 0.00 | 0.00 | 70 | 1011.8 |
| 20260506110819 | 64 | 238 | 3.0 | 10.0 | 0.00 | 0.00 | 0.00 | 70 | 1011.8 |
| 20260506110731 | 64 | 178 | 2.0 | 7.0 | 0.00 | 0.00 | 0.00 | 70 | 1011.8 |
| 20260506110636 | 64 | 132 | 1.0 | 7.0 | 0.00 | 0.00 | 0.00 | 71 | 1011.7 |
| 20260506110532 | 64 | 228 | 3.0 | 7.0 | 0.00 | 0.00 | 0.00 | 70 | 1011.7 |
| 20260506110448 | 64 | 157 | 4.0 | 8.0 | 0.00 | 0.00 | 0.00 | 71 | 1011.7 |
| 20260506110321 | 64 | 200 | 3.0 | 8.0 | 0.00 | 0.00 | 0.00 | 71 | 1011.6 |
| 20260506110234 | 64 | 146 | 2.0 | 8.0 | 0.00 | 0.00 | 0.00 | 71 | 1011.6 |
| 20260506110214 | 64 | 105 | 2.0 | 8.0 | 0.00 | 0.00 | 0.00 | 71 | 1011.6 |
| 20260506110137 | 64 | 182 | 2.0 | 8.0 | 0.00 | 0.00 | 0.00 | 71 | 1011.6 |
| 20260506105944 | 64 | 198 | 2.0 | 8.0 | 0.00 | 0.00 | 0.00 | 71 | 1011.6 |
| 20260506105836 | 64 | 162 | 3.0 | 8.0 | 0.00 | 0.00 | 0.00 | 71 | 1011.7 |
| 20260506105736 | 64 | 158 | 4.0 | 8.0 | 0.00 | 0.00 | 0.00 | 71 | 1011.7 |
| 20260506105629 | 64 | 192 | 3.0 | 8.0 | 0.00 | 0.00 | 0.00 | 71 | 1011.6 |
| 20260506105529 | 63 | 208 | 3.0 | 8.0 | 0.00 | 0.00 | 0.00 | 71 | 1011.7 |
| 20260506105426 | 63 | 213 | 2.0 | 8.0 | 0.00 | 0.00 | 0.00 | 71 | 1011.7 |
| 20260506105322 | 63 | 146 | 3.0 | 8.0 | 0.00 | 0.00 | 0.00 | 71 | 1011.6 |
| 20260506105243 | 63 | 252 | 3.0 | 8.0 | 0.00 | 0.00 | 0.00 | 72 | 1011.6 |
| 20260506105148 | 63 | 267 | 2.0 | 6.0 | 0.00 | 0.00 | 0.00 | 72 | 1011.6 |
| 20260506105047 | 63 | 196 | 3.0 | 6.0 | 0.00 | 0.00 | 0.00 | 72 | 1011.6 |
| 20260506104926 | 63 | 190 | 3.0 | 6.0 | 0.00 | 0.00 | 0.00 | 72 | 1011.6 |
| 20260506104821 | 63 | 211 | 2.0 | 6.0 | 0.00 | 0.00 | 0.00 | 72 | 1011.6 |
| 20260506104736 | 63 | 246 | 2.0 | 6.0 | 0.00 | 0.00 | 0.00 | 72 | 1011.5 |
| 20260506104649 | 63 | 157 | 2.0 | 6.0 | 0.00 | 0.00 | 0.00 | 72 | 1011.5 |
| 20260506104620 | 63 | 234 | 2.0 | 6.0 | 0.00 | 0.00 | 0.00 | 72 | 1011.5 |
| 20260506104424 | 63 | 224 | 3.0 | 6.0 | 0.00 | 0.00 | 0.00 | 72 | 1011.5 |
| 20260506104322 | 63 | 184 | 2.0 | 8.0 | 0.00 | 0.00 | 0.00 | 72 | 1011.4 |
| 20260506104244 | 63 | 204 | 1.0 | 9.0 | 0.00 | 0.00 | 0.00 | 72 | 1011.4 |
| 20260506104130 | 63 | 204 | 1.0 | 11.0 | 0.00 | 0.00 | 0.00 | 72 | 1011.4 |
| 20260506104044 | 63 | 205 | 2.0 | 11.0 | 0.00 | 0.00 | 0.00 | 72 | 1011.4 |
| 20260506103945 | 64 | 169 | 2.0 | 11.0 | 0.00 | 0.00 | 0.00 | 72 | 1011.4 |
| 20260506103845 | 64 | 121 | 2.0 | 11.0 | 0.00 | 0.00 | 0.00 | 72 | 1011.4 |
| 20260506103720 | 64 | 210 | 2.0 | 11.0 | 0.00 | 0.00 | 0.00 | 72 | 1011.5 |
| 20260506103649 | 64 | 259 | 3.0 | 11.0 | 0.00 | 0.00 | 0.00 | 72 | 1011.5 |
| 20260506103522 | 64 | 168 | 3.0 | 11.0 | 0.00 | 0.00 | 0.00 | 72 | 1011.5 |
| 20260506103440 | 64 | 224 | 4.0 | 11.0 | 0.00 | 0.00 | 0.00 | 72 | 1011.5 |
| 20260506103341 | 63 | 209 | 5.0 | 11.0 | 0.00 | 0.00 | 0.00 | 72 | 1011.5 |
| 20260506103244 | 64 | 182 | 4.0 | 11.0 | 0.00 | 0.00 | 0.00 | 72 | 1011.5 |
| 20260506103142 | 64 | 196 | 3.0 | 11.0 | 0.00 | 0.00 | 0.00 | 72 | 1011.4 |
| 20260506103137 | 63 | 98 | 4.0 | 11.0 | 0.00 | 0.00 | 0.00 | 72 | 1011.4 |
| 20260506102926 | 63 | 221 | 4.0 | 11.0 | 0.00 | 0.00 | 0.00 | 72 | 1011.5 |
| 20260506102837 | 63 | 238 | 5.0 | 11.0 | 0.00 | 0.00 | 0.00 | 72 | 1011.4 |
| 20260506102728 | 63 | 150 | 5.0 | 11.0 | 0.00 | 0.00 | 0.00 | 73 | 1011.3 |
| 20260506102624 | 63 | 199 | 3.0 | 11.0 | 0.00 | 0.00 | 0.00 | 73 | 1011.4 |
| 20260506102533 | 63 | 210 | 2.0 | 11.0 | 0.00 | 0.00 | 0.00 | 73 | 1011.4 |
| 20260506102422 | 63 | 165 | 3.0 | 11.0 | 0.00 | 0.00 | 0.00 | 73 | 1011.4 |
| 20260506102348 | 63 | 225 | 3.0 | 11.0 | 0.00 | 0.00 | 0.00 | 73 | 1011.3 |
| 20260506102230 | 63 | 242 | 2.0 | 11.0 | 0.00 | 0.00 | 0.00 | 73 | 1011.3 |
| 20260506102129 | 63 | 222 | 1.0 | 11.0 | 0.00 | 0.00 | 0.00 | 73 | 1011.3 |
| 20260506102045 | 63 | 203 | 2.0 | 11.0 | 0.00 | 0.00 | 0.00 | 73 | 1011.3 |
| 20260506101931 | 63 | 212 | 3.0 | 11.0 | 0.00 | 0.00 | 0.00 | 73 | 1011.4 |
| 20260506101821 | 63 | 213 | 3.0 | 9.0 | 0.00 | 0.00 | 0.00 | 74 | 1011.4 |
| 20260506101724 | 63 | 203 | 4.0 | 9.0 | 0.00 | 0.00 | 0.00 | 74 | 1011.4 |
| 20260506101654 | 63 | 205 | 4.0 | 9.0 | 0.00 | 0.00 | 0.00 | 74 | 1011.4 |
| 20260506101602 | 63 | 171 | 3.0 | 8.0 | 0.00 | 0.00 | 0.00 | 74 | 1011.4 |
| 20260506101443 | 63 | 201 | 2.0 | 8.0 | 0.00 | 0.00 | 0.00 | 74 | 1011.4 |
| 20260506101325 | 63 | 206 | 1.0 | 8.0 | 0.00 | 0.00 | 0.00 | 74 | 1011.4 |
| 20260506101220 | 63 | 252 | 2.0 | 8.0 | 0.00 | 0.00 | 0.00 | 74 | 1011.3 |
| 20260506101131 | 63 | 238 | 3.0 | 9.0 | 0.00 | 0.00 | 0.00 | 74 | 1011.4 |
| 20260506101042 | 63 | 138 | 2.0 | 9.0 | 0.00 | 0.00 | 0.00 | 74 | 1011.3 |
| 20260506100928 | 63 | 207 | 1.0 | 9.0 | 0.00 | 0.00 | 0.00 | 74 | 1011.3 |
| 20260506100832 | 63 | 153 | 2.0 | 9.0 | 0.00 | 0.00 | 0.00 | 74 | 1011.4 |
| 20260506100726 | 63 | 231 | 1.0 | 9.0 | 0.00 | 0.00 | 0.00 | 74 | 1011.4 |
| 20260506100623 | 63 | 167 | 1.0 | 9.0 | 0.00 | 0.00 | 0.00 | 74 | 1011.3 |
| 20260506100533 | 63 | 155 | 2.0 | 9.0 | 0.00 | 0.00 | 0.00 | 74 | 1011.4 |
| 20260506100437 | 63 | 155 | 3.0 | 9.0 | 0.00 | 0.00 | 0.00 | 74 | 1011.5 |
| 20260506100338 | 63 | 221 | 3.0 | 9.0 | 0.00 | 0.00 | 0.00 | 74 | 1011.4 |
| 20260506100248 | 63 | 203 | 3.0 | 9.0 | 0.00 | 0.00 | 0.00 | 74 | 1011.5 |
| 20260506100203 | 63 | 224 | 3.0 | 9.0 | 0.00 | 0.00 | 0.00 | 74 | 1011.5 |
| 20260506095934 | 63 | 186 | 3.0 | 9.0 | 0.00 | 0.00 | 0.00 | 74 | 1011.4 |
| 20260506095842 | 63 | 163 | 3.0 | 9.0 | 0.00 | 0.00 | 0.00 | 74 | 1011.5 |
| 20260506095726 | 63 | 171 | 3.0 | 9.0 | 0.00 | 0.00 | 0.00 | 74 | 1011.4 |
| 20260506095621 | 63 | 217 | 3.0 | 9.0 | 0.00 | 0.00 | 0.00 | 74 | 1011.5 |
| 20260506095537 | 63 | 221 | 3.0 | 9.0 | 0.00 | 0.00 | 0.00 | 74 | 1011.5 |
| 20260506095423 | 63 | 178 | 3.0 | 9.0 | 0.00 | 0.00 | 0.00 | 74 | 1011.5 |
| 20260506095322 | 63 | 151 | 2.0 | 6.0 | 0.00 | 0.00 | 0.00 | 74 | 1011.5 |
| 20260506095246 | 63 | 193 | 2.0 | 7.0 | 0.00 | 0.00 | 0.00 | 74 | 1011.5 |
| 20260506095144 | 63 | 196 | 3.0 | 7.0 | 0.00 | 0.00 | 0.00 | 74 | 1011.5 |
| 20260506095025 | 63 | 227 | 3.0 | 8.0 | 0.00 | 0.00 | 0.00 | 74 | 1011.5 |
| 20260506094930 | 63 | 196 | 2.0 | 8.0 | 0.00 | 0.00 | 0.00 | 74 | 1011.5 |
| 20260506094826 | 63 | 206 | 2.0 | 8.0 | 0.00 | 0.00 | 0.00 | 74 | 1011.5 |
| 20260506094734 | 63 | 209 | 3.0 | 8.0 | 0.00 | 0.00 | 0.00 | 74 | 1011.5 |
| 20260506094649 | 63 | 203 | 3.0 | 8.0 | 0.00 | 0.00 | 0.00 | 74 | 1011.5 |
| 20260506094624 | 63 | 203 | 3.0 | 9.0 | 0.00 | 0.00 | 0.00 | 74 | 1011.5 |
| 20260506094437 | 63 | 216 | 4.0 | 10.0 | 0.00 | 0.00 | 0.00 | 74 | 1011.6 |
| 20260506094323 | 63 | 146 | 4.0 | 10.0 | 0.00 | 0.00 | 0.00 | 74 | 1011.5 |
| 20260506094221 | 63 | 196 | 2.0 | 10.0 | 0.00 | 0.00 | 0.00 | 74 | 1011.6 |
| 20260506094131 | 63 | 149 | 2.0 | 10.0 | 0.00 | 0.00 | 0.00 | 74 | 1011.6 |
| 20260506094040 | 63 | 211 | 3.0 | 10.0 | 0.00 | 0.00 | 0.00 | 74 | 1011.6 |
| 20260506093933 | 63 | 223 | 3.0 | 10.0 | 0.00 | 0.00 | 0.00 | 74 | 1011.4 |
| 20260506093831 | 63 | 212 | 3.0 | 10.0 | 0.00 | 0.00 | 0.00 | 74 | 1011.5 |
| 20260506093735 | 63 | 190 | 3.0 | 10.0 | 0.00 | 0.00 | 0.00 | 74 | 1011.5 |
| 20260506093627 | 63 | 177 | 3.0 | 11.0 | 0.00 | 0.00 | 0.00 | 74 | 1011.4 |
| 20260506093542 | 63 | 210 | 3.0 | 11.0 | 0.00 | 0.00 | 0.00 | 74 | 1011.5 |
| 20260506093428 | 63 | 246 | 2.0 | 11.0 | 0.00 | 0.00 | 0.00 | 74 | 1011.5 |
| 20260506093335 | 63 | 230 | 2.0 | 11.0 | 0.00 | 0.00 | 0.00 | 74 | 1011.4 |
| 20260506093248 | 63 | 200 | 2.0 | 11.0 | 0.00 | 0.00 | 0.00 | 74 | 1011.4 |
| 20260506093131 | 63 | 192 | 2.0 | 11.0 | 0.00 | 0.00 | 0.00 | 74 | 1011.4 |
| 20260506092948 | 63 | 221 | 4.0 | 11.0 | 0.00 | 0.00 | 0.00 | 74 | 1011.3 |
| 20260506092840 | 63 | 202 | 4.0 | 11.0 | 0.00 | 0.00 | 0.00 | 74 | 1011.5 |
| 20260506092735 | 63 | 144 | 4.0 | 9.0 | 0.00 | 0.00 | 0.00 | 74 | 1011.4 |
| 20260506092623 | 63 | 174 | 3.0 | 9.0 | 0.00 | 0.00 | 0.00 | 74 | 1011.5 |
| 20260506092524 | 63 | 261 | 2.0 | 9.0 | 0.00 | 0.00 | 0.00 | 74 | 1011.5 |
| 20260506092435 | 63 | 160 | 2.0 | 9.0 | 0.00 | 0.00 | 0.00 | 74 | 1011.5 |
| 20260506092326 | 63 | 196 | 4.0 | 9.0 | 0.00 | 0.00 | 0.00 | 74 | 1011.4 |
| 20260506092226 | 63 | 151 | 4.0 | 9.0 | 0.00 | 0.00 | 0.00 | 74 | 1011.5 |
| 20260506092130 | 63 | 195 | 3.0 | 8.0 | 0.00 | 0.00 | 0.00 | 74 | 1011.5 |
| 20260506092032 | 63 | 228 | 3.0 | 8.0 | 0.00 | 0.00 | 0.00 | 74 | 1011.5 |
| 20260506091931 | 63 | 217 | 3.0 | 8.0 | 0.00 | 0.00 | 0.00 | 74 | 1011.5 |
| 20260506091843 | 63 | 192 | 2.0 | 8.0 | 0.00 | 0.00 | 0.00 | 74 | 1011.5 |
| 20260506091744 | 63 | 193 | 2.0 | 9.0 | 0.00 | 0.00 | 0.00 | 74 | 1011.5 |
| 20260506091620 | 63 | 194 | 2.0 | 9.0 | 0.00 | 0.00 | 0.00 | 74 | 1011.5 |
| 20260506091617 | 63 | 214 | 2.0 | 9.0 | 0.00 | 0.00 | 0.00 | 74 | 1011.6 |
| 20260506091429 | 63 | 175 | 2.0 | 9.0 | 0.00 | 0.00 | 0.00 | 74 | 1011.5 |
| 20260506091322 | 63 | 189 | 2.0 | 9.0 | 0.00 | 0.00 | 0.00 | 74 | 1011.6 |
| 20260506091224 | 64 | 186 | 2.0 | 9.0 | 0.00 | 0.00 | 0.00 | 74 | 1011.5 |
| 20260506091128 | 64 | 178 | 2.0 | 9.0 | 0.00 | 0.00 | 0.00 | 74 | 1011.6 |
| 20260506091016 | 64 | 162 | 3.0 | 9.0 | 0.00 | 0.00 | 0.00 | 74 | 1011.6 |
| 20260506090946 | 64 | 136 | 4.0 | 11.0 | 0.00 | 0.00 | 0.00 | 74 | 1011.6 |
| 20260506090834 | 64 | 223 | 4.0 | 11.0 | 0.00 | 0.00 | 0.00 | 74 | 1011.6 |
| 20260506090742 | 64 | 186 | 4.0 | 11.0 | 0.00 | 0.00 | 0.00 | 73 | 1011.5 |
| 20260506090646 | 64 | 166 | 3.0 | 11.0 | 0.00 | 0.00 | 0.00 | 73 | 1011.5 |
| 20260506090541 | 64 | 169 | 2.0 | 11.0 | 0.00 | 0.00 | 0.00 | 73 | 1011.5 |
| 20260506090427 | 64 | 239 | 2.0 | 11.0 | 0.00 | 0.00 | 0.00 | 73 | 1011.5 |
| 20260506090332 | 64 | 183 | 4.0 | 11.0 | 0.00 | 0.00 | 0.00 | 73 | 1011.6 |
| 20260506090233 | 64 | 92 | 5.0 | 11.0 | 0.00 | 0.00 | 0.00 | 73 | 1011.6 |
| 20260506090201 | 64 | 232 | 5.0 | 11.0 | 0.00 | 0.00 | 0.00 | 73 | 1011.7 |
| 20260506090127 | 64 | 160 | 4.0 | 12.0 | 0.00 | 0.00 | 0.00 | 74 | 1011.6 |
| 20260506085923 | 64 | 209 | 3.0 | 11.0 | 0.00 | 0.00 | 0.00 | 73 | 1011.6 |
| 20260506085844 | 64 | 169 | 4.0 | 11.0 | 0.00 | 0.00 | 0.00 | 73 | 1011.6 |
| 20260506085741 | 64 | 156 | 4.0 | 11.0 | 0.00 | 0.00 | 0.00 | 73 | 1011.5 |
| 20260506085647 | 64 | 238 | 4.0 | 11.0 | 0.00 | 0.00 | 0.00 | 73 | 1011.6 |
| 20260506085538 | 64 | 190 | 4.0 | 11.0 | 0.00 | 0.00 | 0.00 | 73 | 1011.4 |
| 20260506085435 | 64 | 149 | 3.0 | 10.0 | 0.00 | 0.00 | 0.00 | 73 | 1011.4 |
| 20260506085339 | 64 | 189 | 2.0 | 10.0 | 0.00 | 0.00 | 0.00 | 73 | 1011.5 |
| 20260506085223 | 64 | 234 | 2.0 | 10.0 | 0.00 | 0.00 | 0.00 | 73 | 1011.6 |
| 20260506085123 | 64 | 76 | 2.0 | 10.0 | 0.00 | 0.00 | 0.00 | 73 | 1011.4 |
| 20260506085032 | 64 | 178 | 3.0 | 10.0 | 0.00 | 0.00 | 0.00 | 73 | 1011.5 |
| 20260506084919 | 64 | 193 | 4.0 | 11.0 | 0.00 | 0.00 | 0.00 | 73 | 1011.5 |
| 20260506084835 | 64 | 229 | 3.0 | 9.0 | 0.00 | 0.00 | 0.00 | 73 | 1011.5 |
| 20260506084747 | 64 | 209 | 4.0 | 12.0 | 0.00 | 0.00 | 0.00 | 73 | 1011.4 |
| 20260506084645 | 64 | 186 | 4.0 | 12.0 | 0.00 | 0.00 | 0.00 | 73 | 1011.4 |
| 20260506084624 | 64 | 165 | 4.0 | 12.0 | 0.00 | 0.00 | 0.00 | 73 | 1011.5 |
| 20260506084424 | 64 | 170 | 4.0 | 16.0 | 0.00 | 0.00 | 0.00 | 73 | 1011.4 |
| 20260506084333 | 64 | 216 | 4.0 | 16.0 | 0.00 | 0.00 | 0.00 | 73 | 1011.4 |
| 20260506084245 | 64 | 144 | 5.0 | 16.0 | 0.00 | 0.00 | 0.00 | 73 | 1011.5 |
| 20260506084121 | 64 | 219 | 4.0 | 16.0 | 0.00 | 0.00 | 0.00 | 73 | 1011.4 |
| 20260506084026 | 64 | 242 | 5.0 | 16.0 | 0.00 | 0.00 | 0.00 | 73 | 1011.4 |
| 20260506083937 | 64 | 229 | 5.0 | 16.0 | 0.00 | 0.00 | 0.00 | 73 | 1011.4 |
| 20260506083809 | 64 | 191 | 5.0 | 16.0 | 0.00 | 0.00 | 0.00 | 73 | 1011.4 |
| 20260506083626 | 64 | 219 | 5.0 | 16.0 | 0.00 | 0.00 | 0.00 | 73 | 1011.3 |
| 20260506083519 | 64 | 196 | 3.0 | 9.0 | 0.00 | 0.00 | 0.00 | 73 | 1011.4 |
| 20260506083449 | 64 | 191 | 4.0 | 9.0 | 0.00 | 0.00 | 0.00 | 73 | 1011.4 |
| 20260506083327 | 64 | 209 | 3.0 | 9.0 | 0.00 | 0.00 | 0.00 | 73 | 1011.4 |
| 20260506083233 | 64 | 200 | 3.0 | 9.0 | 0.00 | 0.00 | 0.00 | 73 | 1011.4 |
| 20260506083143 | 64 | 223 | 4.0 | 9.0 | 0.00 | 0.00 | 0.00 | 73 | 1011.4 |
| 20260506083111 | 64 | 167 | 4.0 | 9.0 | 0.00 | 0.00 | 0.00 | 73 | 1011.4 |
| 20260506082943 | 64 | 173 | 4.0 | 9.0 | 0.00 | 0.00 | 0.00 | 73 | 1011.4 |
| 20260506082832 | 64 | 252 | 4.0 | 9.0 | 0.00 | 0.00 | 0.00 | 73 | 1011.3 |
| 20260506082734 | 64 | 150 | 3.0 | 9.0 | 0.00 | 0.00 | 0.00 | 72 | 1011.4 |
| 20260506082626 | 64 | 136 | 3.0 | 9.0 | 0.00 | 0.00 | 0.00 | 72 | 1011.5 |
| 20260506082529 | 64 | 267 | 3.0 | 9.0 | 0.00 | 0.00 | 0.00 | 72 | 1011.4 |
| 20260506082420 | 64 | 182 | 4.0 | 9.0 | 0.00 | 0.00 | 0.00 | 72 | 1011.4 |
| 20260506082340 | 64 | 194 | 4.0 | 9.0 | 0.00 | 0.00 | 0.00 | 72 | 1011.4 |
| 20260506082248 | 64 | 160 | 3.0 | 10.0 | 0.00 | 0.00 | 0.00 | 72 | 1011.4 |
| 20260506082144 | 64 | 258 | 2.0 | 11.0 | 0.00 | 0.00 | 0.00 | 72 | 1011.4 |
| 20260506082035 | 64 | 182 | 2.0 | 11.0 | 0.00 | 0.00 | 0.00 | 72 | 1011.4 |
| 20260506081934 | 64 | 208 | 3.0 | 11.0 | 0.00 | 0.00 | 0.00 | 72 | 1011.4 |
| 20260506081843 | 64 | 163 | 3.0 | 11.0 | 0.00 | 0.00 | 0.00 | 72 | 1011.4 |
| 20260506081741 | 64 | 182 | 3.0 | 15.0 | 0.00 | 0.00 | 0.00 | 72 | 1011.4 |
| 20260506081642 | 64 | 158 | 3.0 | 15.0 | 0.00 | 0.00 | 0.00 | 72 | 1011.4 |
| 20260506081639 | 64 | 202 | 4.0 | 15.0 | 0.00 | 0.00 | 0.00 | 72 | 1011.4 |
| 20260506081431 | 64 | 152 | 6.0 | 15.0 | 0.00 | 0.00 | 0.00 | 72 | 1011.3 |
| 20260506081349 | 64 | 216 | 5.0 | 15.0 | 0.00 | 0.00 | 0.00 | 72 | 1011.4 |
| 20260506081234 | 64 | 273 | 4.0 | 15.0 | 0.00 | 0.00 | 0.00 | 72 | 1011.5 |
| 20260506081123 | 64 | 165 | 6.0 | 15.0 | 0.00 | 0.00 | 0.00 | 72 | 1011.5 |
| 20260506081027 | 64 | 196 | 5.0 | 15.0 | 0.00 | 0.00 | 0.00 | 72 | 1011.5 |
| 20260506080949 | 64 | 153 | 4.0 | 14.0 | 0.00 | 0.00 | 0.00 | 72 | 1011.4 |
| 20260506080834 | 64 | 186 | 3.0 | 11.0 | 0.00 | 0.00 | 0.00 | 72 | 1011.4 |
| 20260506080748 | 64 | 204 | 2.0 | 11.0 | 0.00 | 0.00 | 0.00 | 72 | 1011.4 |
| 20260506080632 | 64 | 183 | 4.0 | 11.0 | 0.00 | 0.00 | 0.00 | 72 | 1011.4 |
| 20260506080546 | 64 | 209 | 5.0 | 11.0 | 0.00 | 0.00 | 0.00 | 72 | 1011.4 |
| 20260506080420 | 64 | 178 | 4.0 | 12.0 | 0.00 | 0.00 | 0.00 | 72 | 1011.4 |
| 20260506080346 | 64 | 194 | 3.0 | 10.0 | 0.00 | 0.00 | 0.00 | 72 | 1011.4 |
| 20260506080244 | 64 | 199 | 3.0 | 10.0 | 0.00 | 0.00 | 0.00 | 72 | 1011.4 |
| 20260506080208 | 64 | 190 | 4.0 | 10.0 | 0.00 | 0.00 | 0.00 | 72 | 1011.4 |
| 20260506073438 | 65 | 229 | 3.0 | 10.0 | 0.00 | 0.00 | 0.00 | 71 | 1011.6 |
| 20260506073324 | 65 | 156 | 4.0 | 10.0 | 0.00 | 0.00 | 0.00 | 71 | 1011.6 |
| 20260506073232 | 65 | 193 | 5.0 | 10.0 | 0.00 | 0.00 | 0.00 | 71 | 1011.6 |
| 20260506073141 | 65 | 206 | 5.0 | 12.0 | 0.00 | 0.00 | 0.00 | 71 | 1011.6 |
| 20260506073137 | 65 | 112 | 4.0 | 12.0 | 0.00 | 0.00 | 0.00 | 71 | 1011.7 |
| 20260506072941 | 65 | 251 | 3.0 | 10.0 | 0.00 | 0.00 | 0.00 | 71 | 1011.6 |
| 20260506072842 | 65 | 175 | 4.0 | 10.0 | 0.00 | 0.00 | 0.00 | 71 | 1011.7 |
| 20260506072736 | 65 | 221 | 5.0 | 10.0 | 0.00 | 0.00 | 0.00 | 71 | 1011.7 |
| 20260506072621 | 65 | 169 | 5.0 | 10.0 | 0.00 | 0.00 | 0.00 | 71 | 1011.7 |
| 20260506072542 | 65 | 217 | 5.0 | 10.0 | 0.00 | 0.00 | 0.00 | 71 | 1011.6 |
| 20260506072424 | 65 | 153 | 4.0 | 11.0 | 0.00 | 0.00 | 0.00 | 71 | 1011.7 |
| 20260506072323 | 65 | 227 | 3.0 | 16.0 | 0.00 | 0.00 | 0.00 | 71 | 1011.8 |
| 20260506072245 | 65 | 128 | 5.0 | 16.0 | 0.00 | 0.00 | 0.00 | 71 | 1011.7 |
| 20260506072140 | 65 | 180 | 4.0 | 16.0 | 0.00 | 0.00 | 0.00 | 71 | 1011.7 |
| 20260506072022 | 65 | 190 | 2.0 | 16.0 | 0.00 | 0.00 | 0.00 | 70 | 1011.8 |
| 20260506071930 | 65 | 218 | 2.0 | 16.0 | 0.00 | 0.00 | 0.00 | 70 | 1011.7 |
| 20260506071838 | 65 | 198 | 3.0 | 16.0 | 0.00 | 0.00 | 0.00 | 70 | 1011.8 |